GFSGBSN_250_spd_042.txt.gz
Wind_Speed
73 73 73 72 68 71 68 70 69 66 66 63 61 61 63 53 50 50 48 51 51 49 50 54 55 56 59 65 68 71 70 66 50 43 38 29 20 14 24 21 24 30 28 22 23 25 33
75 76 74 72 72 72 73 70 71 71 68 65 62 60 61 53 52 49 50 49 49 51 53 57 56 57 58 65 70 68 66 64 50 41 36 24 18 16 28 20 24 21 18 17 22 27 33
74 77 75 76 74 74 75 76 75 75 73 68 64 58 61 58 54 50 50 51 51 54 56 56 56 56 59 63 67 67 64 62 49 42 35 20 20 19 28 30 23 21 24 17 23 26 31
76 75 74 77 74 74 75 75 74 71 70 67 64 58 61 61 57 51 54 52 53 56 57 55 58 57 58 61 65 65 62 62 47 41 34 17 17 20 22 27 32 30 26 25 26 26 33
78 79 75 73 70 68 71 72 72 69 69 67 61 56 60 61 56 55 55 54 55 57 56 55 55 56 58 62 65 63 65 58 44 38 31 15 16 18 24 22 21 30 26 24 29 28 31
80 81 80 75 72 69 69 69 71 69 67 64 61 52 57 55 55 58 59 55 55 58 55 56 55 54 58 61 66 63 64 56 44 36 30 16 12 17 22 18 22 26 26 27 32 29 29
90 84 84 78 75 73 72 69 68 68 68 66 63 58 58 60 59 60 56 53 53 56 53 53 55 55 56 62 64 64 61 52 41 33 28 22 13 19 23 22 21 25 26 28 29 29 26
100 93 89 84 81 79 76 73 71 69 69 65 63 60 62 61 65 62 55 49 51 53 54 54 54 55 55 61 63 63 58 56 41 31 27 21 19 22 26 22 24 23 22 29 26 22 20
99 97 95 94 85 84 80 77 74 72 69 70 69 67 65 64 62 59 54 50 54 53 54 55 53 54 55 59 61 57 60 56 41 29 27 16 19 21 25 26 21 20 25 25 23 22 21
103 102 103 98 98 90 87 82 81 76 74 73 71 69 66 61 61 58 59 59 56 53 52 54 53 54 56 59 58 55 57 58 42 27 26 15 16 24 27 25 20 21 25 23 25 22 23
108 102 99 104 99 94 87 86 84 85 79 77 73 75 72 66 68 63 63 63 58 53 53 53 55 54 56 57 55 55 56 58 44 30 24 22 14 15 31 28 23 21 25 23 22 21 26
105 111 106 104 102 100 96 91 87 85 82 80 77 77 75 75 72 68 68 67 61 55 54 54 56 55 56 57 54 50 57 56 47 31 23 22 15 18 18 25 23 24 24 24 21 21 27
110 108 110 110 106 103 99 97 95 91 87 87 87 81 81 80 77 71 70 68 64 56 56 53 56 56 57 58 56 53 53 54 53 31 19 19 13 14 16 24 22 23 24 22 23 26 25
111 114 114 114 114 110 107 103 100 98 94 89 85 84 84 85 79 73 69 67 61 57 60 57 54 56 59 58 53 54 55 54 50 34 24 19 10 4 5 13 21 19 22 23 24 25 24
119 117 118 118 116 116 114 109 105 104 101 96 90 86 86 89 83 78 75 69 57 61 63 57 53 57 59 59 56 56 54 58 50 38 26 21 17 12 12 15 19 21 22 23 23 22 23
118 119 121 120 122 120 117 111 110 108 104 101 94 90 86 92 89 87 80 62 59 65 65 57 55 57 58 59 55 53 54 54 52 40 27 22 21 18 18 21 22 21 22 21 24 27 26
102 115 119 121 122 122 119 115 115 112 109 106 100 97 89 93 86 85 66 63 62 70 66 60 60 58 59 57 55 52 52 53 54 42 30 25 25 20 18 18 20 24 26 24 23 28 30
97 99 110 116 119 123 121 120 120 119 116 112 105 98 96 98 88 76 67 63 64 71 66 65 61 60 60 58 56 55 51 55 54 49 33 27 29 24 22 19 22 28 29 30 31 31 33
88 91 95 104 113 114 120 121 123 119 119 118 112 106 103 106 94 77 73 72 69 75 67 63 60 62 61 59 57 55 51 54 55 46 34 27 30 32 27 24 24 27 32 34 34 35 38
80 83 85 93 102 111 117 118 121 125 123 123 121 117 111 108 95 87 81 77 74 76 70 64 61 61 58 58 57 54 51 52 51 43 34 28 30 30 31 30 27 31 34 33 33 36 36
72 74 77 81 91 100 108 112 115 122 126 130 127 118 107 102 98 91 84 81 80 80 73 68 63 63 59 58 57 57 52 51 53 50 33 29 32 35 35 29 27 31 33 35 35 33 33
64 68 71 74 77 88 100 107 109 113 123 131 125 119 111 104 104 100 93 84 79 82 74 66 61 61 60 59 58 54 51 54 52 49 34 31 32 31 30 27 25 24 28 30 28 29 32
61 62 64 65 69 76 86 96 105 107 115 110 109 119 117 108 106 100 92 82 78 81 75 67 60 60 58 56 55 56 56 55 52 42 33 27 27 28 28 24 22 26 33 27 30 31 32
58 58 60 62 64 69 75 86 91 103 97 99 103 112 115 110 105 100 92 82 79 79 73 65 61 59 60 55 52 52 51 52 52 41 31 27 30 30 30 25 24 32 28 30 30 33 35
54 55 57 58 60 64 69 76 85 91 88 92 94 100 105 108 105 94 89 82 87 82 75 68 61 59 59 54 53 53 53 54 55 42 30 31 32 32 30 28 28 31 30 31 32 31 31
48 48 50 53 56 57 62 69 75 79 79 85 87 92 97 99 98 100 89 82 79 78 77 70 62 60 56 54 57 56 56 53 51 44 31 33 33 33 34 30 28 32 33 30 31 26 30
44 45 47 50 51 51 57 63 65 68 70 74 77 83 90 90 92 93 81 76 80 78 72 66 59 55 55 56 55 55 53 56 48 39 31 32 34 35 35 32 32 34 31 30 29 31 33
39 42 44 45 46 47 50 53 54 60 64 67 70 75 79 88 87 84 81 80 78 72 64 60 62 59 56 58 59 57 55 52 38 36 30 32 36 38 36 33 34 34 32 31 34 36 36
37 40 42 44 43 44 46 49 53 58 60 63 67 70 75 80 82 82 76 77 72 68 67 64 60 59 59 62 61 59 53 45 39 36 32 35 38 38 38 34 35 36 37 38 38 38 40

GFSGBSN_250_spd_045.txt.gz
Wind_Speed
62 64 69 64 66 69 69 68 67 68 66 69 62 62 60 63 63 63 61 58 56 54 50 53 50 53 54 56 55 58 64 70 75 76 68 51 47 34 24 18 18 21 18 18 14 16 17
71 68 66 73 67 64 67 68 70 69 66 63 62 62 64 65 65 67 65 58 55 54 52 53 52 54 54 53 56 58 62 69 74 78 65 49 44 28 22 15 16 13 13 13 14 14 18
72 66 72 70 71 66 66 65 68 69 68 67 66 65 65 66 66 69 68 59 55 55 54 54 54 55 53 54 53 56 61 68 72 74 62 46 37 24 16 18 13 17 21 17 19 19 19
88 86 81 71 75 71 72 71 65 70 70 71 70 67 67 70 68 67 62 57 52 57 56 54 54 54 54 53 51 54 59 65 69 72 56 46 29 18 9 18 17 12 17 16 15 18 21
87 82 77 80 76 77 75 74 70 68 67 68 69 68 65 67 65 64 60 53 51 56 56 52 54 51 51 50 51 52 57 66 65 66 50 42 23 14 8 12 18 14 16 18 19 19 18
94 94 90 88 83 85 81 79 74 71 66 64 65 63 62 63 63 61 57 51 49 54 53 50 52 48 48 50 48 50 56 65 64 64 45 38 20 16 11 14 14 17 22 24 20 21 21
105 99 99 79 86 84 81 80 78 72 66 64 62 63 62 63 62 61 58 54 48 51 53 50 51 45 48 48 47 48 54 63 64 60 43 36 23 19 16 15 12 14 17 20 21 22 22
106 100 100 98 92 89 85 87 81 74 69 64 65 64 63 62 62 60 58 53 55 56 51 53 48 48 49 50 48 48 53 58 59 58 41 34 25 18 20 15 11 12 17 20 22 24 24
121 112 105 90 93 90 87 91 87 80 72 68 67 66 66 64 62 61 58 53 52 53 52 50 50 49 51 50 46 46 51 57 59 61 46 32 27 17 21 16 13 13 16 16 19 24 23
111 109 102 93 90 89 91 92 89 88 81 76 70 70 70 67 64 61 59 57 57 54 48 50 50 51 49 49 46 46 50 54 59 56 49 34 27 18 15 18 15 15 15 16 20 22 21
108 103 98 93 90 88 93 94 96 92 88 84 76 75 71 69 70 62 60 60 58 53 46 50 51 53 50 51 48 45 47 51 57 54 53 34 27 20 12 16 15 15 15 15 21 22 19
105 100 98 95 93 92 95 96 97 96 92 89 82 77 76 73 71 65 65 64 60 57 49 50 52 55 53 51 47 44 45 50 54 58 53 36 23 20 13 10 18 17 18 16 23 22 21
107 104 101 99 98 93 96 99 99 98 96 93 86 83 79 79 75 69 67 64 60 53 55 55 57 55 53 48 48 44 46 48 52 58 52 44 22 18 9 7 15 19 21 19 21 21 19
107 106 105 103 103 102 96 101 105 106 100 98 93 89 85 83 79 72 72 67 60 56 60 58 58 53 50 48 47 44 43 45 49 53 49 42 32 17 13 7 11 17 21 20 25 25 23
103 102 103 104 105 105 104 101 104 106 107 101 98 92 87 88 83 76 75 67 58 63 66 62 60 54 54 51 49 47 45 45 49 50 52 42 36 21 18 15 10 14 19 20 23 23 19
95 98 99 100 103 108 108 105 103 105 110 106 98 95 90 96 88 81 73 65 61 66 67 66 61 57 56 50 47 44 45 47 49 49 50 43 43 24 20 22 19 17 21 21 23 22 20
85 90 95 96 100 105 112 111 108 107 112 110 104 98 94 98 95 85 71 62 63 70 70 64 61 57 57 50 49 47 50 46 50 49 49 46 40 27 21 23 17 14 20 21 17 19 19
79 82 88 92 94 101 109 113 109 108 113 116 110 102 99 102 98 83 73 66 67 73 68 65 60 55 54 53 47 49 49 48 50 49 48 46 41 37 23 21 21 18 17 22 24 26 27
75 77 80 85 90 94 103 113 116 112 114 113 113 108 105 110 101 82 78 72 71 75 68 63 59 55 53 53 50 51 47 49 47 49 46 45 43 41 28 22 25 26 23 23 27 30 32
73 75 74 79 84 88 96 107 117 117 116 117 118 119 114 112 98 88 82 81 74 77 70 64 58 54 53 54 54 51 48 50 47 50 47 44 44 45 32 27 25 28 31 29 31 32 31
68 72 70 72 75 81 90 98 111 119 118 121 125 118 112 108 99 90 86 81 76 76 70 66 64 58 56 57 54 51 51 47 47 49 49 46 46 47 34 27 28 30 33 36 33 33 32
65 67 67 69 70 75 83 91 98 109 118 124 118 118 114 104 101 96 89 80 75 76 70 66 63 62 58 56 55 52 54 52 50 48 49 49 48 43 36 29 27 27 26 27 28 24 21
62 63 64 65 67 71 75 84 92 103 114 111 105 113 115 108 105 101 86 80 80 86 76 70 63 61 58 55 61 58 52 52 46 45 49 49 45 43 36 29 22 21 31 23 20 23 24
56 59 61 61 63 66 69 76 85 96 96 92 98 108 108 106 103 94 93 88 84 86 82 78 70 65 63 60 56 54 51 55 50 48 50 48 44 43 36 27 20 31 30 27 27 26 25
52 56 57 57 58 60 65 69 81 88 87 87 93 96 100 103 102 104 98 93 88 91 86 82 73 66 69 68 64 58 53 53 49 48 49 48 45 43 35 29 25 30 32 31 30 27 29
49 52 53 53 53 57 61 67 73 78 79 83 84 88 94 95 95 102 101 96 90 89 90 82 79 73 72 66 66 62 60 54 48 45 47 49 48 43 36 30 28 36 32 34 30 27 34
43 46 48 48 50 53 58 63 68 72 72 74 77 83 87 89 98 102 103 100 94 91 88 87 80 71 69 63 58 54 51 46 43 48 51 49 47 41 34 30 32 37 33 32 33 38 34
40 42 44 46 49 52 55 60 63 64 65 66 71 73 79 91 94 94 98 102 96 95 90 88 85 79 73 67 62 54 52 47 46 46 49 51 46 39 36 30 32 39 34 34 38 40 37
37 39 41 43 45 47 47 49 52 53 57 59 66 70 76 87 85 83 84 86 87 90 92 88 80 72 65 59 56 56 52 48 44 48 50 49 47 43 37 32 36 40 39 39 38 39 41

GFSGBSN_250_spd_048.txt.gz
Wind_Speed
51 49 49 58 50 47 54 62 62 56 57 57 61 65 65 62 62 61 60 56 54 57 57 60 62 60 55 59 58 59 60 62 62 68 73 77 70 54 42 34 23 9 9 6 11 15 17
58 56 54 54 62 57 63 68 62 58 60 61 54 58 60 63 63 60 58 57 56 57 59 60 64 57 55 57 57 57 57 58 59 65 72 73 65 52 37 24 17 8 9 10 14 14 17
64 60 60 64 71 72 75 77 79 64 67 62 58 57 58 60 60 59 57 59 58 58 60 59 56 51 53 54 54 54 54 55 55 63 71 74 58 47 31 20 13 5 7 11 15 16 16
71 73 76 77 84 86 83 78 73 75 72 67 63 58 58 57 63 59 59 59 61 55 55 54 50 49 54 53 51 50 50 52 56 62 68 71 53 42 28 23 9 8 6 10 9 10 9
85 85 85 93 94 96 88 81 70 69 71 71 70 61 62 59 59 56 57 57 57 54 53 52 50 51 52 49 46 49 49 54 55 61 64 68 51 41 28 20 4 4 1 7 5 2 8
103 105 105 107 104 99 87 89 87 77 73 73 72 67 65 60 60 59 55 55 51 49 51 53 49 52 49 47 47 48 50 51 50 58 62 65 50 40 25 22 7 6 8 6 4 6 13
108 108 108 104 102 101 94 89 88 88 81 78 78 71 67 66 63 59 58 54 52 52 52 54 50 49 48 47 46 47 50 49 49 55 58 59 54 38 23 20 10 8 10 11 11 12 11
112 110 107 105 102 99 96 90 91 84 81 77 80 77 74 68 63 59 58 54 54 54 53 52 49 46 47 46 44 46 49 46 48 52 55 57 58 38 25 15 11 9 9 9 9 12 13
116 116 114 111 108 107 106 104 102 97 94 84 77 80 75 72 63 60 58 58 57 54 50 51 46 45 40 45 45 46 46 45 46 50 56 59 55 40 27 13 10 9 8 6 10 12 12
132 129 126 122 120 117 114 109 103 94 88 87 78 83 81 74 67 63 59 62 59 58 54 53 45 44 45 44 43 43 46 46 45 48 52 56 52 46 26 16 6 11 13 10 10 10 12
134 134 132 131 128 122 117 111 100 94 86 82 80 79 78 77 74 67 60 63 61 57 52 51 44 44 47 43 42 43 46 44 43 47 49 53 52 49 26 19 7 11 13 14 11 9 14
124 123 122 123 121 119 112 104 99 92 86 82 77 83 79 83 79 73 65 64 61 58 49 45 46 48 50 45 42 44 45 43 42 44 46 53 51 47 29 17 12 10 13 15 13 14 16
115 114 114 113 112 112 109 104 99 94 88 83 80 85 80 85 85 78 71 65 64 56 54 50 51 52 50 45 43 46 44 42 43 43 45 52 50 45 34 18 18 13 17 18 18 12 17
106 107 108 106 103 104 103 101 97 95 88 85 84 87 86 83 89 82 78 73 62 57 59 55 52 51 48 45 47 46 44 43 43 42 43 50 49 50 41 19 20 19 13 16 17 18 20
93 95 99 102 101 101 100 97 95 92 90 87 89 87 88 85 88 86 84 74 63 61 63 59 58 54 51 49 48 47 47 46 43 43 44 49 51 48 42 23 20 21 16 16 18 16 22
83 85 88 92 94 96 100 99 98 94 91 89 90 89 90 91 90 89 87 74 66 64 65 62 59 57 53 51 49 50 49 47 45 45 44 45 48 48 42 31 19 18 21 17 19 17 20
79 80 80 83 85 91 94 97 97 98 95 94 92 89 94 98 98 92 78 73 69 68 66 64 62 56 54 51 50 47 47 47 44 44 44 45 46 49 44 36 20 14 20 19 18 21 23
76 77 77 78 79 84 88 94 96 99 100 99 94 91 97 107 106 88 74 68 73 71 68 65 63 59 57 55 50 49 47 46 43 44 45 43 43 49 48 38 25 22 20 21 19 24 23
74 75 75 76 75 78 82 88 94 99 99 97 96 93 100 107 106 87 78 75 70 73 71 65 63 59 56 52 49 49 47 46 41 45 44 43 42 47 48 42 40 21 22 23 25 28 30
69 72 74 74 74 73 79 83 90 94 96 97 101 103 106 103 96 96 86 77 71 72 71 68 65 59 58 53 51 51 48 47 44 47 44 43 45 47 47 44 39 29 23 25 28 30 31
64 67 70 70 71 71 75 80 85 90 94 99 100 102 100 96 93 89 89 83 76 77 71 68 65 58 56 53 52 51 49 49 48 49 43 44 45 47 49 50 41 34 27 26 26 30 31
58 62 66 68 68 67 71 77 82 86 94 96 95 94 97 90 94 93 89 81 76 77 72 68 62 60 59 55 55 55 55 54 51 49 47 46 45 47 48 50 45 36 28 25 28 32 34
53 56 60 64 65 64 66 70 77 84 91 85 80 89 92 91 96 95 80 84 82 81 73 69 65 64 61 59 61 60 55 53 52 49 45 45 49 45 46 53 44 37 34 25 22 21 25
47 50 55 60 61 61 63 67 72 75 76 78 79 87 89 87 94 85 82 84 86 81 79 73 67 63 62 63 61 59 56 54 49 46 45 48 48 48 46 52 44 41 34 29 22 22 23
43 45 50 54 57 58 59 62 64 70 73 75 78 85 89 89 93 92 86 85 89 84 84 79 73 69 71 68 66 64 59 57 55 53 49 47 49 46 44 50 42 42 41 31 26 25 28
40 44 46 50 52 53 55 59 60 63 70 73 76 78 84 88 93 93 88 83 84 85 88 81 75 78 78 75 68 64 60 52 52 51 52 49 45 43 42 44 42 44 41 34 31 30 34
37 40 43 45 48 51 53 53 56 62 66 67 70 76 77 80 95 96 90 84 81 81 85 85 82 79 74 69 66 63 60 55 53 54 52 49 47 47 47 46 40 40 42 34 32 40 33
36 38 40 42 45 47 48 51 54 58 59 62 68 72 75 78 87 94 94 90 82 80 83 87 92 82 75 73 70 64 60 55 51 50 48 50 51 47 47 47 41 43 40 38 35 38 36
30 33 35 38 41 44 45 46 48 50 54 59 63 68 72 76 81 90 90 91 86 82 85 88 87 85 78 74 68 64 61 61 56 54 51 54 53 49 47 44 44 44 43 41 39 36 38

GFSGBSN_250_spd_051.txt.gz
Wind_Speed
59 60 52 53 51 46 43 41 45 43 42 45 54 52 48 50 47 55 51 51 51 51 53 55 51 53 52 53 56 52 56 54 55 55 58 68 72 74 70 52 41 24 15 8 6 6 13
68 60 62 57 57 56 53 51 53 54 50 52 58 58 57 58 59 54 53 46 46 51 52 51 50 50 52 49 48 54 55 53 51 53 58 65 69 70 65 51 35 20 12 5 7 14 15
62 62 62 61 62 61 64 57 59 57 55 57 67 62 64 66 65 61 52 48 45 45 48 49 49 48 50 49 48 52 51 49 46 52 56 62 64 67 66 50 31 15 15 5 9 13 13
76 70 64 69 68 65 69 64 63 63 68 68 70 73 67 71 66 57 58 52 48 45 50 50 50 49 47 48 48 48 48 45 45 49 54 59 60 64 68 48 28 14 9 5 7 12 17
81 78 80 76 73 71 71 75 71 72 76 75 75 69 65 64 66 61 61 53 50 46 49 47 46 47 47 48 47 45 44 42 43 47 52 56 58 63 63 45 29 12 8 7 5 5 5
96 94 89 89 89 80 80 80 80 82 86 89 89 79 73 73 67 69 65 58 51 49 50 48 47 47 47 47 45 41 41 41 42 46 49 53 55 58 60 42 31 11 6 4 1 3 5
98 99 96 95 96 96 92 94 92 94 96 94 91 89 85 81 69 64 67 67 58 52 51 48 47 45 45 44 41 38 37 39 42 43 46 49 52 54 57 38 32 7 6 7 5 3 8
104 104 107 106 106 104 100 99 99 100 101 100 95 93 84 78 74 68 64 67 65 54 50 48 45 45 45 42 40 35 35 37 41 40 43 45 47 54 57 39 30 8 5 7 7 8 9
107 106 107 109 107 104 102 100 99 98 95 95 94 90 85 77 76 73 68 61 65 59 51 52 47 49 42 40 37 35 36 39 37 38 41 43 44 49 56 44 29 11 3 5 6 7 9
112 115 116 113 112 110 108 106 105 104 104 103 99 96 89 84 76 76 74 63 66 58 56 52 49 46 43 44 41 37 37 38 35 37 40 42 44 48 51 52 29 22 10 4 6 8 12
126 124 123 122 120 121 119 118 114 111 106 104 102 98 97 88 84 77 73 64 65 60 56 53 50 47 45 43 41 35 35 37 36 38 40 41 42 45 50 51 35 27 15 8 8 9 9
122 122 124 123 125 123 119 119 117 115 115 110 107 103 100 92 86 82 74 68 64 64 54 56 50 50 47 45 37 33 37 40 38 38 39 40 41 44 48 50 41 26 21 13 9 9 9
115 116 116 115 117 116 114 116 119 117 114 114 112 107 100 91 87 77 72 68 64 65 58 60 53 52 49 45 39 36 40 40 37 38 40 42 40 43 48 48 42 27 20 17 13 11 10
105 105 105 107 108 109 109 108 110 115 112 112 111 107 100 91 90 80 76 69 63 62 62 61 55 50 49 46 41 39 41 41 39 39 39 41 40 43 43 46 43 32 20 20 19 17 14
96 97 98 99 99 100 101 102 102 105 107 107 113 106 100 93 93 86 80 69 62 63 63 64 60 58 56 51 45 41 42 42 40 39 40 41 38 39 43 45 41 35 19 17 18 17 18
87 88 89 91 93 93 95 95 97 101 102 101 104 105 100 99 99 89 79 65 67 66 66 66 63 59 58 55 49 44 44 45 43 40 39 37 35 37 42 43 37 31 24 16 16 17 19
82 83 83 84 85 85 87 90 94 95 99 101 99 101 96 102 105 92 71 64 66 66 67 67 66 61 59 57 52 46 46 47 43 41 40 38 36 33 39 40 37 38 28 22 17 20 22
73 76 79 80 80 80 81 83 88 91 94 100 98 94 94 107 104 84 69 68 70 67 69 65 66 64 64 59 52 49 50 48 44 41 40 38 35 35 36 36 37 40 32 27 22 23 25
73 70 71 75 77 77 78 80 83 85 91 93 92 90 96 110 94 77 67 73 74 70 68 67 66 63 62 58 53 53 52 52 47 42 40 37 35 35 35 38 37 41 38 32 21 25 29
70 69 67 68 71 75 76 77 80 80 85 89 91 93 101 101 79 79 74 76 75 72 71 66 66 65 63 58 56 53 52 53 45 41 39 37 36 37 36 39 37 39 40 36 27 26 31
64 64 64 64 66 70 73 75 77 76 82 85 87 89 90 81 75 73 71 77 80 77 73 69 67 62 59 58 57 54 52 52 47 44 40 39 37 39 38 38 37 40 42 40 31 27 29
53 56 58 59 64 65 68 70 74 75 78 79 77 79 78 77 77 83 77 76 77 79 77 68 66 63 60 57 58 57 53 52 47 43 41 40 39 39 38 39 39 38 43 39 34 28 27
44 48 53 56 60 62 62 66 68 68 69 69 69 74 75 78 79 83 75 77 77 77 77 72 68 68 64 62 64 60 54 52 46 45 44 43 41 41 39 40 38 38 40 37 32 31 25
39 45 49 52 54 57 60 62 63 61 59 64 68 73 72 74 78 79 82 81 80 76 80 78 75 69 68 69 65 59 56 53 50 49 46 44 43 43 42 38 34 43 44 37 35 33 25
35 39 43 46 48 52 56 56 58 60 57 62 68 68 70 79 82 86 88 85 84 80 83 82 82 77 75 68 64 61 57 54 50 49 47 43 45 44 39 35 34 37 46 38 38 32 33
31 35 37 40 45 48 50 52 56 53 56 63 65 64 71 79 83 88 91 89 87 81 85 81 83 81 77 72 68 63 61 57 53 49 47 44 46 43 39 37 33 41 41 44 40 36 35
27 32 34 38 41 43 46 50 50 51 55 58 57 61 68 75 82 86 92 91 90 85 84 83 83 84 80 75 70 68 64 59 52 47 48 47 48 46 40 35 34 35 46 44 44 38 36
26 31 35 37 40 43 45 48 49 49 49 52 55 59 66 72 80 84 92 95 91 87 84 84 88 84 80 74 67 65 62 58 55 50 49 48 46 44 42 40 33 45 42 47 45 42 34
26 30 33 37 39 40 41 42 41 41 47 49 53 56 64 74 77 80 86 92 93 89 88 86 82 84 78 76 68 64 59 55 49 47 47 48 47 47 49 43 40 45 47 48 46 40 35

GFSGBSN_250_spd_054.txt.gz
Wind_Speed
70 66 67 63 60 62 58 58 55 51 49 45 43 38 36 39 43 45 48 38 42 50 53 45 44 44 44 46 44 43 44 48 49 49 50 48 52 58 61 68 68 55 48 30 19 14 9
73 69 68 66 65 63 62 60 62 59 53 49 45 43 40 43 47 47 52 45 46 49 48 45 42 42 42 40 41 41 45 48 47 45 46 46 50 56 60 65 65 51 43 26 14 6 2
76 74 72 71 68 68 65 54 58 60 57 54 55 55 53 50 49 52 51 48 50 47 48 54 44 42 40 38 40 42 44 47 45 43 42 44 49 52 55 60 64 46 36 20 9 1 2
81 81 79 78 76 73 75 64 58 60 62 61 63 60 59 56 55 57 54 55 61 51 55 57 51 49 44 39 40 40 43 45 43 40 41 42 47 49 52 57 61 42 30 14 4 3 7
88 84 84 81 75 77 79 76 70 66 65 67 67 68 65 65 62 65 66 61 58 54 61 62 51 49 45 37 38 40 44 42 41 36 37 40 44 46 49 54 59 38 24 7 5 6 5
89 89 82 81 80 77 73 78 79 74 74 75 73 68 68 69 70 74 67 63 58 56 60 58 54 52 49 37 39 40 41 38 35 34 36 39 39 43 47 49 55 38 27 10 4 3 1
82 83 81 92 85 86 88 86 84 82 77 77 79 77 76 76 77 76 74 68 65 67 62 60 53 55 56 43 39 37 36 34 33 32 34 38 38 42 44 46 52 45 30 12 7 8 3
97 96 94 95 96 92 92 93 91 93 94 93 87 88 88 83 81 81 81 70 65 68 67 62 56 52 49 44 37 35 37 33 30 31 35 34 35 41 42 44 49 50 31 17 8 7 6
99 98 96 96 96 96 93 98 96 97 100 95 93 93 89 87 85 85 83 76 79 73 67 63 60 51 47 43 40 37 37 36 34 33 34 32 35 40 41 43 49 48 28 29 10 7 7
107 108 109 105 103 103 102 102 104 99 102 99 100 100 96 97 95 92 90 80 81 74 66 64 61 47 49 41 41 40 39 36 35 33 33 31 35 38 41 43 47 45 33 27 16 7 8
110 111 111 110 109 106 103 105 107 106 101 101 105 102 98 98 93 88 83 79 78 78 75 64 59 47 49 46 45 42 40 33 35 31 32 32 34 37 39 40 40 47 38 20 22 12 10
111 111 111 113 114 115 116 115 116 115 115 109 106 107 103 99 95 94 88 87 83 79 68 57 52 52 48 49 46 41 41 35 35 32 32 33 33 36 37 37 37 43 33 19 19 17 12
105 106 108 109 110 111 112 113 112 111 111 108 110 109 106 101 99 99 91 90 87 74 63 57 56 52 48 47 48 40 43 39 38 33 34 34 33 35 35 33 34 38 32 21 17 20 16
98 99 99 101 102 105 107 110 113 115 116 116 114 113 110 106 105 101 94 94 85 68 69 60 59 55 53 50 49 49 46 39 39 37 34 35 34 34 32 31 31 33 33 26 16 18 22
96 97 99 99 100 102 103 103 104 102 105 112 117 118 121 116 115 113 108 101 82 77 70 64 61 65 57 51 50 53 49 45 41 37 36 36 36 33 30 30 29 29 31 25 20 17 19
90 91 92 93 95 96 98 99 100 102 105 107 107 109 111 114 117 118 112 95 88 79 72 67 62 67 62 52 45 46 50 46 44 42 37 39 38 33 30 28 26 27 30 29 24 20 20
84 85 85 86 87 89 90 92 95 98 100 101 104 105 101 106 113 118 105 84 85 78 73 68 65 65 61 57 57 51 50 51 50 44 41 41 40 34 30 28 26 26 31 30 26 23 24
78 79 80 81 82 83 83 83 85 88 93 95 97 94 97 104 111 103 88 84 86 81 80 72 70 73 65 61 60 61 59 57 54 48 43 42 41 35 32 28 25 25 29 28 28 28 21
74 71 70 71 73 75 79 81 81 83 86 87 85 88 94 106 103 88 79 79 80 80 78 76 72 74 65 63 62 61 63 61 54 52 45 46 42 37 34 30 25 24 26 31 28 27 25
73 71 68 67 68 71 73 78 78 81 84 85 81 80 86 92 83 81 78 77 80 79 80 78 75 74 67 64 63 60 64 62 58 54 49 49 43 39 35 31 25 25 28 32 27 27 27
66 66 67 67 69 70 72 74 76 78 83 82 74 71 70 72 77 74 76 75 78 78 80 78 75 70 67 64 66 62 62 64 61 57 52 48 44 41 35 31 27 26 33 32 28 25 24
58 60 62 64 66 66 68 69 72 74 77 72 63 63 64 66 73 72 75 72 74 79 81 76 76 73 70 66 67 64 64 62 60 55 51 47 44 40 35 33 30 31 35 33 27 26 27
52 53 55 59 62 62 62 65 67 68 68 54 55 63 62 62 65 68 70 76 75 80 80 81 83 80 74 68 70 66 63 60 58 55 51 47 43 41 37 36 31 33 35 36 29 27 31
42 42 45 49 52 53 58 60 61 62 50 53 59 65 61 61 64 66 74 78 82 80 83 84 82 76 74 75 73 67 61 58 57 55 51 47 44 40 38 38 30 37 33 37 28 29 30
33 36 39 41 45 48 51 52 53 51 49 55 62 61 59 59 63 71 78 82 88 89 90 86 85 81 83 83 74 69 63 59 57 56 52 47 44 41 40 38 34 36 36 36 31 32 29
25 28 32 37 41 45 45 47 45 45 50 57 62 60 54 56 61 71 78 89 91 93 96 92 88 88 87 81 77 71 68 61 61 56 52 48 47 44 43 38 32 44 40 37 33 35 31
18 22 27 32 35 38 40 42 44 48 51 59 58 53 54 59 63 71 84 89 94 98 98 96 91 89 88 82 77 71 70 65 61 56 52 48 48 45 45 39 36 44 38 44 36 40 36
15 19 23 27 31 36 39 41 46 50 55 54 50 49 52 58 65 74 86 95 101 103 101 95 96 90 89 84 77 71 69 65 61 56 53 52 51 50 47 41 36 47 42 41 40 36 40
15 20 25 29 33 35 39 43 47 50 50 46 46 49 52 59 64 73 84 94 98 103 103 96 88 91 86 82 77 74 69 69 63 58 58 55 54 52 47 42 43 43 44 41 40 44 41

GFSGBSN_250_spd_057.txt.gz
Wind_Speed
72 69 71 71 72 68 63 60 60 60 58 58 54 53 46 45 42 43 38 36 35 38 41 39 41 40 39 34 41 40 41 41 37 40 44 47 47 47 46 48 54 61 64 50 41 31 21
75 75 74 74 75 75 66 68 69 64 60 61 59 56 52 49 44 46 44 41 45 45 42 47 47 46 47 46 41 39 38 39 37 40 44 46 43 43 44 45 51 58 64 48 34 22 19
77 77 75 76 76 78 75 72 72 64 62 62 63 59 57 52 48 50 48 45 47 47 47 46 50 46 46 48 49 36 36 38 36 39 45 44 39 42 43 42 48 54 60 44 22 25 11
77 73 75 73 70 75 78 75 75 70 67 67 71 64 60 56 53 53 53 52 47 48 51 53 52 48 51 49 50 40 35 38 34 39 43 39 36 39 42 40 45 50 55 39 15 14 8
80 81 81 76 75 73 74 74 74 74 72 71 74 70 61 59 60 58 60 60 58 55 56 56 51 48 49 48 50 48 44 39 39 39 37 33 36 38 40 39 43 48 49 36 18 11 6
87 87 83 84 83 84 82 79 78 79 80 77 77 77 74 61 63 63 64 66 63 60 59 56 57 50 47 45 49 43 48 39 42 37 31 38 34 36 37 38 43 45 46 37 23 17 6
93 90 93 87 86 87 86 85 87 88 85 86 81 75 72 71 70 68 69 69 66 66 64 64 53 52 50 45 49 45 47 39 37 36 34 35 32 37 36 37 41 43 46 40 26 21 15
101 97 97 98 94 92 96 97 90 91 90 86 81 81 78 79 74 74 75 75 71 68 73 69 61 54 52 50 49 47 48 37 35 37 33 35 34 36 35 36 40 40 42 38 24 20 18
111 105 101 101 99 94 99 93 92 87 87 91 90 86 87 82 86 85 77 80 79 78 78 67 62 58 57 50 51 52 48 40 35 35 37 36 35 35 35 36 39 39 39 39 22 20 17
93 99 103 102 108 104 103 97 95 96 93 92 93 98 95 92 90 91 88 88 84 83 82 68 70 61 62 57 48 52 52 39 37 38 35 36 34 34 35 36 37 37 36 37 25 17 18
101 100 100 98 96 100 99 101 104 104 105 101 100 99 100 101 95 96 93 94 95 89 84 75 66 64 63 62 55 57 48 40 37 37 35 36 34 34 36 35 37 34 36 35 29 15 17
100 103 104 106 108 106 102 103 103 107 107 104 102 101 100 99 95 97 94 99 99 98 81 77 68 67 70 60 57 61 43 41 42 38 41 36 34 34 36 36 36 33 32 30 35 16 17
98 99 101 100 102 106 108 110 110 108 109 107 107 106 104 102 102 105 101 104 102 90 84 78 74 74 69 62 59 52 43 42 38 43 40 36 35 34 36 37 35 31 30 31 34 24 14
95 98 100 101 102 104 106 110 110 112 117 118 116 112 107 105 106 104 106 110 110 84 81 83 77 72 71 68 65 52 45 42 40 39 45 44 36 35 36 36 35 30 27 28 32 28 17
90 91 91 92 93 96 100 106 109 111 114 116 117 115 112 114 116 116 117 118 97 86 89 85 82 78 79 75 67 54 50 44 39 46 48 48 40 36 36 37 36 31 26 27 28 25 21
85 87 89 90 92 94 95 98 99 102 105 109 112 112 111 114 118 125 127 125 104 96 95 94 88 81 76 69 61 56 55 49 46 43 54 52 44 37 36 39 38 34 27 27 28 25 24
83 84 86 87 89 91 93 95 98 100 103 105 105 102 104 110 117 125 121 108 93 94 96 92 88 83 74 67 64 61 55 56 53 45 49 51 46 38 37 40 38 35 27 27 27 26 24
79 81 82 83 85 87 89 91 93 95 98 100 99 96 99 107 109 109 105 99 96 97 99 95 90 85 80 72 70 63 59 61 56 55 53 47 49 40 41 41 41 36 30 29 26 30 26
76 78 80 81 82 83 85 87 89 89 89 91 89 91 95 103 95 94 95 92 87 92 100 99 95 94 89 84 76 66 64 64 60 53 45 55 46 45 44 41 42 37 32 32 28 31 28
73 74 76 77 79 80 81 82 81 82 84 84 82 82 86 87 85 83 83 84 84 85 88 92 98 99 93 87 79 69 66 63 64 59 49 55 53 48 47 45 44 39 35 31 28 30 27
64 64 64 66 68 69 72 76 79 82 84 86 80 74 76 71 68 70 74 76 77 78 84 88 95 94 88 86 79 72 69 65 67 69 58 54 57 55 53 46 45 42 37 32 29 32 29
62 65 66 66 67 67 69 70 73 76 80 85 76 65 67 67 71 70 67 67 72 76 84 84 87 89 90 85 80 78 72 71 68 69 65 63 60 58 55 50 46 44 40 33 29 31 30
61 60 61 62 63 65 67 69 73 76 80 77 62 60 63 63 67 69 59 63 64 73 73 80 84 90 91 84 85 77 74 73 69 70 58 63 59 60 55 53 47 41 44 35 33 32 30
54 52 51 54 57 60 64 68 71 73 71 64 57 61 59 62 65 59 61 65 63 70 72 80 88 93 87 90 84 80 76 73 71 70 61 59 59 59 57 52 45 44 43 39 35 33 34
46 45 45 46 49 52 56 59 64 65 63 56 59 54 58 64 64 65 58 61 63 73 83 89 86 90 94 88 85 82 78 75 71 69 69 59 59 57 54 51 45 44 45 43 37 35 37
38 38 38 39 41 44 47 51 53 56 55 55 54 57 61 62 61 63 64 65 70 73 80 88 92 98 93 91 85 80 76 73 70 64 64 63 61 58 53 50 41 47 50 47 41 36 44
29 29 30 32 35 38 40 42 47 51 51 51 53 55 59 60 64 63 59 62 68 73 78 90 93 92 92 90 83 79 77 74 69 63 62 63 59 54 50 46 44 51 53 49 42 49 42
20 21 25 28 29 33 37 40 42 45 48 51 53 57 58 61 59 54 57 63 68 74 79 87 92 95 95 93 84 79 78 71 68 68 67 61 59 53 52 50 45 53 57 46 48 47 43
14 18 21 24 26 29 33 38 41 47 53 55 56 57 57 57 52 57 61 64 67 74 82 91 86 92 91 90 84 82 78 74 70 70 70 64 58 55 54 49 50 54 56 51 50 47 43

GFSGBSN_250_spd_060.txt.gz
Wind_Speed
65 70 75 76 76 76 72 69 70 71 69 66 59 59 55 53 54 52 48 44 42 42 41 36 36 34 34 37 34 39 41 42 39 35 33 37 35 43 44 39 42 43 48 52 57 46 33
68 68 70 75 75 71 71 69 65 70 68 66 62 65 57 57 58 52 49 50 44 40 44 42 42 38 38 38 41 45 46 44 42 39 35 35 34 43 39 36 41 42 47 51 53 41 29
65 70 70 71 73 72 73 73 75 68 70 68 71 67 68 60 60 55 53 48 51 46 47 47 45 44 40 48 42 48 47 49 45 43 41 34 38 43 35 35 38 40 46 49 48 39 24
70 71 75 78 75 78 73 74 73 71 70 72 72 73 69 65 61 57 57 56 52 51 47 52 46 41 46 43 44 46 48 50 48 49 46 38 34 30 36 34 36 39 44 46 47 35 18
72 74 75 76 76 80 73 74 70 70 70 70 71 72 71 68 65 61 60 61 57 56 51 52 52 47 49 48 45 50 44 44 52 53 47 41 34 30 36 34 39 35 41 43 45 35 21
79 82 80 83 76 80 80 81 78 73 69 69 69 72 68 65 66 65 64 65 63 60 57 55 54 53 53 56 51 46 50 42 44 50 44 44 33 32 32 31 41 36 44 41 42 38 20
88 85 89 88 87 85 82 86 83 83 81 76 74 71 68 69 66 67 68 69 71 68 61 59 56 56 56 60 58 51 48 39 37 42 43 44 35 32 34 32 38 37 41 41 42 42 19
98 91 93 90 89 91 89 91 90 87 84 82 81 79 77 75 76 74 71 76 75 73 65 62 60 57 57 57 59 56 45 40 40 44 36 41 34 33 33 33 36 36 42 41 38 41 31
100 101 97 100 99 96 98 96 94 91 92 89 87 85 83 82 79 79 79 84 77 74 65 66 66 60 65 58 54 52 45 45 47 45 40 39 37 38 33 33 34 38 39 38 35 37 34
99 100 102 103 107 106 104 104 104 99 96 94 92 91 90 85 90 90 87 88 82 78 73 69 70 58 65 64 59 59 53 52 46 45 44 42 43 32 33 31 32 39 37 38 32 38 38
105 107 105 109 110 107 108 110 108 107 105 103 100 101 97 97 94 94 92 91 91 89 78 74 74 62 70 67 65 61 58 50 44 46 45 45 43 35 35 30 32 39 36 37 34 35 39
99 101 104 104 100 102 101 100 107 108 109 112 106 107 105 103 99 101 97 92 95 94 80 78 76 68 67 69 69 66 64 55 48 44 46 53 46 34 37 33 33 37 37 37 35 32 39
96 98 99 102 104 103 102 102 104 106 106 102 99 105 100 103 102 104 101 99 100 92 84 84 82 76 70 68 71 68 62 57 48 47 45 46 46 40 34 34 33 34 38 35 35 31 34
94 96 96 99 100 102 104 106 107 108 108 108 108 106 101 101 102 112 109 111 112 84 88 91 89 85 78 76 76 73 64 55 52 50 49 46 40 37 39 40 38 33 38 32 35 33 33
87 89 91 94 97 100 101 102 102 103 105 107 110 110 109 108 108 114 112 118 104 89 85 89 88 87 82 82 78 78 69 55 53 54 53 46 40 37 35 44 41 35 39 34 35 33 30
81 83 84 86 88 90 92 94 96 99 103 105 105 105 106 111 117 120 118 112 96 93 91 97 98 92 88 88 83 82 77 62 60 61 60 56 47 44 40 43 43 33 39 35 34 35 27
79 80 81 82 84 85 87 89 91 94 97 100 102 102 105 110 113 117 114 109 102 93 95 102 95 93 89 88 88 84 78 69 65 67 67 63 50 47 47 41 47 37 39 37 35 36 29
75 76 78 79 80 82 84 87 89 91 94 96 98 97 101 106 107 107 103 102 106 106 105 108 103 97 93 92 91 84 80 74 73 69 65 60 56 50 41 37 41 39 39 39 37 37 32
70 71 73 75 77 79 81 84 85 88 90 93 93 96 99 102 96 93 95 97 102 104 102 105 110 103 103 99 98 93 84 81 80 72 66 58 55 58 44 39 34 38 41 38 39 39 34
65 66 67 70 72 74 76 79 82 83 84 87 88 89 91 89 88 87 88 89 88 95 88 92 106 109 109 106 103 97 88 77 75 73 70 64 55 58 45 44 46 42 39 40 41 38 38
63 65 67 69 71 74 74 75 77 77 80 86 82 74 76 75 74 75 80 79 82 85 85 85 96 95 96 107 108 95 89 84 76 73 72 66 55 56 58 46 46 45 45 41 42 43 39
65 66 67 68 70 71 73 75 75 74 79 83 76 62 63 63 66 69 69 70 74 76 78 76 89 87 92 99 105 102 93 89 84 77 75 68 58 63 60 47 44 53 50 44 45 46 41
62 63 63 64 65 67 70 71 74 76 79 80 77 64 59 55 60 62 56 59 65 71 69 69 83 84 92 86 101 98 96 94 92 83 79 71 63 67 55 49 47 50 48 50 46 48 43
58 58 60 62 63 65 67 69 72 73 74 79 65 67 63 57 62 53 59 65 65 64 66 69 80 76 74 90 94 97 98 97 95 87 81 74 66 69 63 57 43 44 48 52 48 49 44
56 57 59 59 61 63 63 66 68 69 70 74 57 64 64 57 60 57 65 65 66 64 65 70 74 60 77 89 89 90 94 97 100 88 81 75 68 67 70 62 49 47 53 54 52 52 47
52 53 54 53 55 56 57 60 64 67 70 65 61 63 60 60 53 60 71 71 68 67 69 66 67 68 80 82 87 91 93 98 96 85 79 74 69 66 70 61 53 49 58 53 55 46 52
42 43 43 43 45 46 49 52 55 57 58 57 61 61 58 53 58 65 67 68 65 69 69 73 69 69 76 71 80 85 96 90 83 75 74 74 70 65 64 61 53 51 57 58 51 55 54
33 33 34 35 37 39 42 45 46 48 49 51 53 54 53 53 59 60 62 63 66 64 63 68 75 72 72 75 82 86 81 78 78 78 75 72 70 65 64 64 52 52 59 57 56 62 54
23 24 24 26 27 30 34 37 40 42 42 46 49 51 54 60 61 59 60 65 63 63 67 71 58 64 65 71 74 76 78 80 77 78 73 70 63 65 67 62 61 57 61 61 61 56 57

GFSGBSN_250_spd_063.txt.gz
Wind_Speed
92 93 89 81 79 77 70 72 69 70 72 70 68 68 66 65 64 63 58 57 48 47 49 46 39 39 37 34 35 31 31 35 36 38 36 42 41 48 51 36 33 32 34 38 41 42 33
88 84 83 81 73 71 66 57 65 71 74 72 67 68 67 65 64 63 61 55 50 50 49 49 42 35 42 44 38 37 38 38 41 38 41 47 47 48 49 32 31 35 32 37 39 39 37
79 79 73 67 56 55 60 64 64 64 67 72 67 66 62 59 60 61 54 57 58 52 50 45 42 38 40 50 38 42 39 39 37 41 44 47 51 48 49 40 31 33 35 38 38 38 37
76 69 65 66 62 59 61 64 67 64 64 65 63 63 66 67 61 62 62 63 62 60 52 48 45 40 45 44 45 40 38 37 40 43 42 48 44 43 49 45 32 31 34 40 39 39 35
64 71 70 74 73 64 65 69 68 69 65 66 68 66 65 67 64 63 65 67 65 62 57 53 51 40 48 44 43 45 41 41 44 44 47 40 37 50 43 36 31 27 35 39 36 36 34
72 72 73 72 74 73 73 72 69 70 71 70 70 73 69 66 63 61 65 67 65 64 59 56 54 49 45 48 47 48 47 46 46 51 49 38 37 43 39 36 32 26 31 37 38 39 34
75 77 74 79 81 78 81 76 76 76 75 70 71 72 69 64 65 66 69 74 70 65 59 56 54 53 51 48 52 49 46 50 43 49 48 41 38 43 41 40 34 25 31 35 37 39 36
79 81 74 78 85 84 83 82 82 83 81 75 76 80 78 74 71 71 68 72 73 64 58 56 56 51 56 54 52 56 48 48 48 52 43 42 44 39 42 41 36 25 27 35 33 35 37
77 89 89 81 85 84 87 91 89 89 89 89 84 80 80 81 78 81 76 76 72 63 59 58 58 52 60 56 52 58 54 54 51 46 50 50 46 39 37 37 41 34 26 35 37 33 37
82 84 92 96 97 95 91 89 90 94 91 89 87 89 87 84 85 84 83 84 81 73 68 60 67 57 60 59 48 60 57 58 50 50 53 43 48 38 36 38 39 41 26 33 36 33 37
85 87 88 91 97 107 103 103 97 99 100 100 95 90 91 90 87 88 86 89 85 82 77 73 68 62 66 64 60 66 60 54 51 55 52 47 45 41 37 44 41 35 26 28 36 34 33
82 89 95 97 97 98 108 110 103 105 98 102 104 103 99 98 99 100 99 94 92 89 77 75 70 68 70 67 67 71 68 56 56 58 55 51 51 44 38 38 39 30 27 24 33 37 30
85 86 93 97 102 104 103 104 108 109 111 107 110 109 105 104 109 106 107 107 103 89 75 75 76 73 73 71 74 78 74 65 58 59 58 57 53 45 42 39 42 36 29 29 29 35 32
86 88 91 93 96 99 102 103 108 111 112 113 112 110 110 108 115 113 115 111 110 83 82 85 86 85 81 81 81 81 79 71 64 60 63 59 54 51 46 41 38 39 37 32 29 35 37
83 85 88 89 91 92 94 95 99 102 106 106 111 113 111 112 109 109 112 118 100 87 83 87 95 92 85 81 84 86 78 72 68 63 62 64 56 55 46 36 34 40 32 34 31 34 37
80 80 82 84 85 86 88 90 92 95 98 99 101 102 102 109 109 107 109 100 90 87 94 100 109 101 92 86 84 86 86 77 72 66 66 67 62 55 51 42 33 42 47 34 29 31 36
75 77 79 81 83 84 85 86 87 89 91 94 96 96 100 104 103 102 96 92 96 99 98 99 102 101 95 93 91 94 90 88 81 72 69 69 65 61 57 49 41 43 48 41 36 32 35
72 74 76 77 78 79 80 81 83 84 87 90 90 90 94 97 96 93 92 94 96 99 102 105 106 99 94 94 97 95 95 86 82 80 73 73 70 66 59 56 48 46 48 48 39 40 30
67 68 70 71 71 73 75 76 78 80 84 87 88 89 92 92 85 84 87 89 92 92 92 97 104 104 101 96 98 96 94 91 89 87 78 76 74 71 65 60 53 49 53 51 49 39 27
63 63 65 67 69 71 72 74 76 77 80 84 86 85 86 83 81 81 83 85 86 86 87 91 93 99 103 102 100 100 93 96 96 89 83 81 77 69 66 62 59 53 54 46 44 36 32
57 59 60 61 62 64 65 68 70 72 76 82 80 73 76 75 71 75 78 80 83 84 86 84 83 90 98 100 105 100 99 98 94 88 84 85 78 72 66 65 65 60 55 51 43 36 33
53 54 56 57 59 59 61 64 66 68 72 79 71 64 66 69 68 72 70 67 70 78 78 79 74 86 92 86 95 98 105 103 100 94 88 88 79 78 71 67 64 62 57 53 44 42 37
51 52 54 55 57 59 60 61 64 66 71 72 62 60 59 58 57 65 54 56 63 72 70 73 77 77 75 82 88 89 97 98 98 100 95 94 89 85 76 68 66 62 55 54 42 44 40
51 53 54 56 57 59 60 62 64 66 67 71 59 58 56 52 57 50 55 55 59 65 65 67 68 57 68 86 86 85 81 91 96 98 96 99 92 87 82 70 72 54 54 56 52 41 42
50 53 54 56 58 60 62 64 66 68 69 73 62 59 51 48 52 54 52 52 60 65 64 63 62 63 79 82 81 77 77 85 85 85 93 102 94 88 81 75 65 57 53 58 55 42 40
49 51 54 57 60 61 62 64 67 70 71 72 66 59 60 56 49 58 58 62 60 62 62 59 64 69 75 76 74 71 73 77 80 77 82 92 95 89 83 79 71 60 57 61 59 40 41
51 52 54 54 54 57 59 60 63 67 68 67 60 65 66 59 57 59 59 62 67 65 64 67 73 76 75 71 65 62 63 72 74 75 83 91 94 82 85 78 71 63 61 64 61 47 54
45 46 48 50 52 54 56 58 61 63 66 64 61 68 67 58 60 54 59 66 66 66 65 69 78 70 63 58 51 52 59 66 72 78 84 91 94 79 75 76 71 67 66 65 57 61 64
35 36 37 38 40 43 45 48 52 54 57 57 58 63 64 61 57 54 60 64 63 65 68 69 65 66 56 53 47 51 57 65 70 71 80 80 80 75 65 68 73 67 64 64 65 63 63

GFSGBSN_250_spd_066.txt.gz
Wind_Speed
98 101 104 103 100 98 90 83 78 80 80 74 70 69 71 66 60 61 59 58 57 58 54 50 48 44 38 43 38 41 35 33 36 34 35 36 35 37 37 38 35 45 43 33 28 34 39
101 107 102 103 101 93 85 84 80 83 83 72 70 69 68 60 60 67 61 63 60 54 50 48 47 44 38 44 36 38 38 38 37 34 33 31 29 33 35 37 38 43 44 32 27 34 38
104 97 101 102 94 85 79 77 79 71 74 70 66 66 69 67 67 67 64 61 60 57 56 51 46 42 40 41 36 36 42 41 40 35 36 30 28 35 40 40 42 40 42 33 27 32 36
94 91 88 82 79 73 67 66 67 65 62 59 65 64 58 63 68 63 65 64 61 54 54 50 46 43 48 44 38 38 39 42 44 40 40 35 34 36 39 41 42 40 38 34 31 29 34
82 78 77 74 71 69 66 67 67 57 57 52 54 60 60 62 61 60 59 58 55 53 51 49 49 48 54 49 42 41 40 41 39 41 40 39 37 40 38 42 42 43 33 38 32 28 34
74 72 71 68 66 64 68 68 65 60 64 57 56 54 60 60 58 58 58 54 54 53 51 51 53 52 54 53 47 46 41 39 37 37 39 41 39 41 41 38 45 44 37 37 33 27 32
71 67 64 62 62 64 71 71 69 69 71 67 60 64 62 62 62 61 63 64 61 58 51 45 49 49 52 54 52 49 46 40 38 38 39 39 42 43 41 40 44 37 38 34 33 25 28
70 66 64 62 62 64 72 75 72 74 72 72 70 73 66 70 68 66 65 66 62 60 53 53 49 49 55 50 48 52 47 44 42 40 40 37 43 37 41 41 41 42 39 32 41 24 28
70 68 66 67 67 67 75 78 79 78 78 77 79 77 76 72 74 72 71 67 64 59 53 56 55 48 63 56 54 55 52 48 44 40 41 38 46 39 42 41 40 40 38 34 28 24 25
71 69 68 68 72 72 78 84 85 83 83 80 82 81 74 81 79 78 77 73 70 64 62 56 59 53 57 56 47 59 50 50 47 41 44 38 49 44 42 42 41 40 34 29 34 25 26
70 68 68 69 73 78 81 86 89 89 85 85 86 85 85 82 85 82 82 78 73 75 63 62 64 60 56 58 55 64 62 55 51 48 45 41 49 44 44 49 45 45 36 32 29 25 28
74 74 72 71 73 78 85 88 93 94 92 87 88 91 90 88 93 90 89 84 79 80 68 71 66 64 63 65 62 66 65 64 60 54 47 49 55 49 50 49 50 47 42 33 31 30 28
79 78 78 78 77 80 83 91 92 94 100 98 94 94 92 96 96 95 94 95 88 78 71 73 72 72 74 74 73 73 72 67 63 59 53 57 57 58 49 53 55 50 45 39 32 33 30
82 82 81 80 81 82 84 87 93 96 97 103 108 104 98 102 99 100 100 97 92 83 82 83 84 83 76 76 79 80 79 71 66 64 59 58 58 57 56 53 54 50 49 41 35 33 30
79 80 82 83 83 83 85 86 89 92 97 100 102 104 104 110 112 110 107 100 88 86 87 90 94 90 89 86 83 84 82 76 72 67 65 64 58 67 64 60 54 52 48 45 40 33 28
74 75 77 79 80 82 83 84 86 88 92 97 101 104 105 107 105 110 116 103 96 92 94 100 105 99 93 93 91 89 82 78 77 75 76 71 68 68 63 61 54 50 52 47 39 33 29
77 77 77 76 75 76 77 78 80 82 86 91 92 93 104 103 103 104 98 96 99 101 101 105 107 107 101 99 97 96 84 83 84 83 77 74 73 74 74 61 54 53 54 53 45 39 35
72 74 75 75 75 76 75 75 76 78 80 86 88 85 90 92 92 90 86 95 98 101 103 103 105 105 104 96 90 84 87 88 90 86 80 74 76 72 68 64 61 58 54 55 48 39 40
68 68 69 70 72 73 73 73 75 77 80 84 84 82 84 85 78 79 85 91 89 91 93 95 97 97 99 97 90 87 80 85 87 84 85 86 80 78 74 68 60 59 58 59 55 48 48
63 63 64 65 65 67 69 71 72 74 77 81 80 77 74 73 73 75 80 81 80 85 86 86 91 92 94 96 92 88 84 90 85 79 82 87 83 78 71 69 68 64 60 61 60 54 49
56 57 59 61 62 64 66 67 68 70 74 79 73 66 66 69 71 74 78 79 79 80 77 79 82 86 89 89 93 85 93 94 92 90 85 88 81 78 72 72 75 71 61 62 60 53 53
52 54 55 57 59 59 60 62 64 66 71 75 63 61 63 66 68 67 70 71 77 72 69 72 75 84 79 81 88 91 92 88 91 91 91 93 85 80 77 72 75 75 69 65 63 55 50
47 49 51 52 53 54 56 57 59 62 67 65 57 58 59 61 62 63 62 69 68 69 68 69 73 72 77 83 85 86 83 89 88 86 91 88 90 86 78 77 78 83 68 65 63 56 54
44 46 48 49 50 51 53 54 55 57 59 61 55 57 56 52 53 53 60 63 65 66 65 67 68 71 81 80 81 81 79 77 81 86 86 87 91 91 84 83 88 67 72 67 66 62 61
42 43 44 46 48 49 51 52 54 56 59 59 56 56 51 50 50 55 56 59 59 58 57 62 66 72 78 77 77 75 73 73 74 78 79 90 91 84 82 88 83 77 72 69 68 65 62
39 41 43 44 45 46 48 50 52 54 56 57 53 52 48 47 41 56 57 58 57 57 61 59 66 67 71 68 70 66 67 65 68 70 72 75 84 90 89 82 83 78 80 79 76 66 64
36 38 42 43 45 47 50 52 54 55 56 55 51 48 47 46 49 50 46 49 56 55 55 60 64 67 69 65 60 62 60 60 61 65 68 71 77 79 78 89 81 81 78 75 77 61 66
37 40 43 46 47 49 51 54 56 55 55 54 49 51 51 46 49 44 48 48 52 52 52 59 64 62 65 63 59 57 55 54 57 61 63 69 68 74 79 84 81 83 84 87 79 73 70
37 38 40 42 44 47 49 51 53 56 56 54 52 54 55 51 46 44 48 52 54 55 57 60 61 65 65 61 55 51 47 52 54 56 63 64 62 74 77 80 80 77 69 61 68 74 74

GFSGBSN_250_spd_069.txt.gz
Wind_Speed
92 97 98 97 100 98 102 103 102 95 99 103 93 93 88 82 78 75 74 66 65 64 59 49 52 48 49 51 49 40 40 37 36 36 34 34 34 35 32 25 31 33 37 40 38 40 36
102 103 104 106 102 104 105 107 109 110 102 100 98 96 86 76 76 76 74 71 66 67 61 56 51 47 46 53 42 39 40 35 32 35 37 39 37 36 32 27 32 32 37 40 37 39 39
113 113 113 104 121 111 107 109 100 102 100 89 82 81 81 69 71 74 74 67 68 65 59 55 50 50 49 54 43 44 41 32 33 31 38 42 31 38 38 39 32 34 38 38 38 37 41
115 116 108 112 111 108 106 101 93 91 81 71 69 68 70 69 74 72 66 68 67 65 61 56 55 48 50 53 43 49 39 36 35 33 32 43 44 45 38 36 32 33 36 39 38 36 39
121 116 117 107 115 113 100 90 80 73 68 63 60 64 65 64 65 65 63 66 61 64 59 56 53 44 52 52 48 44 44 40 35 37 35 35 40 38 37 37 37 32 36 36 34 37 37
114 118 115 109 102 93 83 76 70 63 62 58 62 61 61 60 56 59 61 62 62 62 57 58 46 47 51 52 49 49 46 45 40 39 37 33 33 34 36 34 38 34 36 33 35 38 39
108 115 106 93 90 80 75 69 65 62 61 61 63 62 64 60 53 50 53 60 58 52 50 50 48 49 50 49 50 49 48 48 44 42 44 35 30 37 33 28 31 31 31 33 32 35 33
100 93 90 86 77 73 70 66 64 60 61 65 66 65 57 60 59 59 58 57 55 50 48 50 50 50 53 53 47 51 50 50 48 48 45 40 37 39 30 29 32 32 32 31 31 33 33
91 85 86 81 75 72 69 66 63 62 63 68 69 70 64 63 62 60 51 53 51 55 51 53 55 51 57 50 49 51 49 50 51 47 47 47 46 42 28 30 34 34 34 33 35 33 34
84 83 79 78 76 74 71 68 67 65 65 69 74 72 72 68 67 69 63 59 58 55 55 56 59 54 54 52 46 59 50 55 49 49 51 48 49 40 32 34 35 36 34 36 39 35 37
82 80 77 75 75 75 73 70 71 69 70 70 78 78 79 75 72 72 73 70 70 67 60 60 58 51 52 51 48 59 60 55 52 57 53 48 51 46 38 39 34 42 37 37 41 41 36
79 78 78 77 76 76 75 72 69 72 73 74 76 81 84 82 79 77 76 77 74 70 59 63 59 54 58 58 58 62 59 61 60 57 52 53 54 49 46 46 42 45 43 43 43 41 41
82 81 80 79 79 78 77 75 73 72 74 78 78 82 84 85 85 81 83 81 76 71 66 72 65 67 69 66 62 64 65 62 60 59 55 56 56 58 54 51 44 41 43 42 40 41 44
84 83 82 82 81 80 80 79 77 75 75 78 83 81 88 90 89 88 89 84 76 70 72 74 76 72 76 76 73 70 67 62 62 62 61 60 59 62 60 55 51 50 48 41 43 48 45
80 82 82 81 81 82 82 81 82 81 80 79 82 86 91 93 94 93 93 88 76 78 81 81 80 77 78 76 75 77 75 71 72 70 69 69 66 69 66 62 56 50 43 50 50 44 46
82 82 81 79 78 77 80 81 82 81 82 84 84 85 94 92 95 98 95 87 83 83 89 92 92 85 88 88 84 79 77 76 73 71 70 68 69 72 72 65 59 54 54 52 52 45 43
76 77 77 76 78 78 75 76 79 80 80 84 85 84 87 91 93 94 93 92 94 93 95 94 93 93 91 92 86 86 86 82 82 80 81 79 74 71 72 64 62 61 58 54 52 48 43
71 72 73 73 74 74 76 75 74 75 79 83 83 78 82 85 84 83 92 93 99 102 102 99 96 96 96 93 93 90 89 89 86 85 84 82 79 73 72 72 68 66 62 60 55 53 44
63 65 67 69 70 71 72 74 74 72 74 77 80 75 78 83 72 73 79 87 98 100 103 104 104 103 98 97 102 100 98 94 95 93 89 86 82 76 75 77 74 69 65 58 56 54 43
55 57 58 61 62 65 67 69 71 74 76 78 77 71 68 70 68 73 77 81 85 90 96 99 102 105 102 100 97 94 93 92 94 91 92 88 83 82 77 79 77 72 69 61 59 55 48
51 52 53 54 57 59 61 64 66 69 73 78 76 66 63 65 69 76 78 77 80 80 84 87 92 96 95 96 97 95 97 95 94 93 89 84 79 74 72 77 78 71 69 68 65 62 56
48 48 49 51 52 54 56 59 62 64 69 71 64 61 61 65 71 72 73 69 72 75 77 82 83 90 91 86 91 93 90 88 87 88 86 85 79 77 76 74 75 74 68 67 67 63 55
43 44 45 47 49 52 53 55 58 63 66 60 58 56 57 61 67 66 64 68 69 72 75 79 79 81 84 85 85 86 84 87 84 85 82 82 80 80 80 81 83 80 61 67 62 59 58
42 42 42 44 47 50 52 54 56 59 58 57 53 58 56 59 60 59 62 63 62 66 72 73 72 78 81 78 76 77 76 75 74 79 79 80 83 81 78 85 87 72 78 73 70 66 63
42 42 42 43 44 46 49 51 53 55 56 53 53 52 52 55 57 59 60 62 63 62 62 64 67 75 73 74 73 72 71 68 69 72 72 74 78 82 79 81 82 77 78 82 80 70 68
43 43 43 42 43 45 46 48 50 51 53 50 50 47 48 50 48 53 55 57 60 63 64 66 69 71 69 68 66 67 68 67 67 68 70 71 72 73 74 80 79 68 74 81 84 76 73
39 40 42 43 45 46 46 47 48 49 51 49 47 46 47 46 49 49 49 53 55 57 58 59 63 62 64 60 60 62 63 64 63 65 69 70 70 72 74 77 63 72 76 77 80 68 81
36 35 36 39 42 44 45 46 47 47 48 46 45 44 42 45 48 49 51 50 51 52 53 56 57 55 54 56 56 58 58 61 62 63 66 68 69 71 73 70 69 68 70 74 78 76 76
38 40 41 42 42 43 44 46 48 49 49 48 45 44 43 45 45 47 49 48 49 57 59 56 56 58 55 54 53 56 54 54 56 59 64 67 70 72 72 71 75 73 67 62 75 77 80

GFSGBSN_250_spd_072.txt.gz
Wind_Speed
95 95 97 95 97 99 98 103 104 105 106 103 102 98 100 96 93 97 101 97 90 87 85 72 70 69 67 63 62 49 50 49 43 44 39 35 34 33 31 35 33 33 34 34 33 34 36
95 98 101 102 104 105 106 106 106 112 110 108 106 105 94 104 103 108 105 99 93 91 86 78 72 67 63 62 58 45 47 45 46 45 38 34 29 33 37 38 37 35 35 37 33 31 33
102 105 108 107 108 114 112 111 113 113 117 119 118 112 112 109 107 108 102 91 90 86 76 71 73 66 58 64 63 57 50 42 45 44 40 31 29 33 37 40 35 36 43 33 33 28 31
103 101 105 109 108 115 117 118 116 120 116 114 120 109 108 107 114 92 83 80 77 71 64 62 60 55 53 67 58 55 50 47 47 42 41 30 29 35 37 42 43 41 36 31 32 25 30
100 100 104 109 108 111 116 116 116 114 114 109 110 108 108 104 83 72 69 64 62 59 59 61 59 54 58 63 59 54 50 52 44 43 42 30 33 34 36 44 43 37 33 33 32 25 29
106 109 111 112 117 119 116 114 112 109 108 104 105 94 83 72 66 61 60 55 56 56 58 62 54 56 62 65 58 59 50 50 50 48 45 34 36 36 38 37 35 31 30 25 22 22 24
115 120 119 118 116 115 110 110 108 99 95 92 76 70 65 59 57 57 58 58 56 57 60 62 55 56 59 65 62 57 50 47 49 48 46 39 33 42 41 35 32 31 29 28 23 24 23
122 122 126 122 117 111 108 106 103 99 93 74 70 62 58 56 54 55 56 52 56 58 56 52 45 52 59 65 58 55 52 50 48 48 50 39 34 52 43 38 34 34 29 25 22 22 22
127 129 124 119 112 110 110 102 99 92 77 68 61 58 55 56 54 53 55 55 56 52 48 46 48 52 65 62 60 54 50 50 49 47 45 46 46 50 45 40 40 40 34 29 22 21 24
121 118 115 113 110 104 99 93 87 79 70 62 59 57 56 57 56 60 58 59 57 50 47 48 48 50 54 53 49 60 55 51 51 52 54 42 46 52 49 47 44 43 39 28 25 25 27
113 110 109 107 101 95 87 81 77 72 68 62 60 57 58 59 60 63 62 66 60 55 53 54 48 55 56 53 50 52 57 56 55 56 54 45 53 49 45 50 46 45 43 34 31 28 27
106 104 101 96 89 85 81 77 75 71 67 64 60 58 59 62 62 63 68 65 63 47 56 56 46 51 60 60 58 57 54 55 56 57 52 51 55 50 45 52 48 49 46 40 34 30 26
96 95 92 89 86 82 79 77 77 74 70 67 64 62 61 66 66 69 73 69 69 62 55 59 51 59 58 62 61 57 58 56 54 54 52 54 55 52 51 52 51 51 51 47 38 35 32
88 88 87 86 85 83 82 80 79 78 76 71 70 65 63 69 70 73 75 75 72 72 71 63 67 67 66 62 63 61 62 55 52 52 54 53 54 54 55 57 57 57 53 47 43 40 35
86 87 87 87 85 83 81 79 78 79 78 78 75 70 66 71 72 75 75 79 73 77 76 75 74 73 70 67 66 65 63 60 60 59 57 60 60 57 54 58 58 55 54 53 47 39 34
85 84 83 81 79 77 76 75 74 75 77 80 78 75 72 70 72 78 76 74 82 77 81 80 79 80 77 75 71 72 73 68 67 62 61 57 57 61 64 64 63 60 59 56 49 41 39
80 80 80 78 76 75 76 77 77 76 77 78 79 77 75 74 72 73 74 76 80 87 87 87 83 82 83 84 80 75 74 76 71 74 71 68 67 67 67 65 65 63 63 60 54 47 38
77 75 74 74 74 74 73 74 74 75 77 77 76 73 75 78 72 67 71 79 81 86 90 91 86 85 86 82 79 79 79 75 75 74 75 74 68 68 71 71 71 70 65 62 56 50 45
71 69 70 70 71 71 71 72 74 74 73 75 74 71 72 80 66 64 68 74 82 85 91 90 91 91 90 90 90 88 87 81 80 79 79 78 76 75 74 73 74 73 72 70 64 58 50
66 65 66 65 64 64 64 65 67 69 70 71 68 70 68 67 62 68 71 73 76 85 93 92 95 97 97 95 95 92 94 90 90 87 84 84 85 82 79 75 76 71 67 64 64 60 54
59 58 57 57 57 56 57 57 59 61 62 65 62 61 61 56 62 71 73 73 75 81 84 88 94 98 98 98 98 97 98 93 91 88 86 88 84 84 88 85 83 80 75 75 68 64 64
51 50 49 47 48 50 51 51 53 55 57 56 49 50 53 59 65 65 68 68 72 77 81 82 83 92 97 96 98 101 102 99 92 92 91 92 91 89 88 88 86 85 78 82 76 69 61
44 44 45 45 45 46 47 48 49 51 50 45 39 46 49 58 64 63 61 67 71 74 76 79 80 86 88 90 89 93 96 96 94 94 91 90 88 87 82 85 85 77 82 80 72 65 59
43 43 44 44 44 43 43 44 45 45 41 39 45 47 45 52 58 61 65 68 69 70 74 75 77 81 83 79 78 80 84 83 82 86 87 86 90 92 88 89 89 79 83 82 78 68 63
43 42 42 41 40 41 40 40 41 40 40 41 41 41 45 51 55 56 60 64 68 69 70 72 75 79 74 72 72 71 73 73 73 76 78 79 80 80 79 82 77 75 80 83 83 72 70
39 39 38 38 38 40 39 39 38 38 40 40 42 42 45 51 52 56 58 61 62 65 64 69 74 69 69 67 68 68 70 70 71 72 73 72 72 74 73 74 73 73 81 82 79 66 77
38 37 36 37 38 38 39 39 39 39 40 40 41 42 44 45 49 53 55 57 58 60 62 67 67 63 62 61 63 66 67 67 68 70 71 71 70 70 70 73 66 68 76 79 74 68 76
36 36 37 37 37 38 38 39 39 40 40 41 43 43 45 47 50 52 52 53 53 55 60 65 59 55 57 58 59 62 65 67 66 69 70 70 70 69 70 69 65 70 70 73 72 72 75
35 36 36 36 38 38 39 38 38 40 40 38 41 42 45 48 47 49 50 51 53 56 58 56 55 54 55 55 55 59 60 62 63 63 64 65 68 70 68 69 69 68 70 71 72 69 71

GFSGBSN_250_spd_075.txt.gz
Wind_Speed
88 90 93 95 94 96 98 98 98 101 102 102 100 99 96 100 95 98 98 103 103 96 94 96 82 83 87 88 90 78 75 65 67 65 56 48 43 36 34 32 30 27 27 31 31 29 33
91 91 93 94 94 95 97 98 98 101 104 103 103 103 104 104 102 101 102 101 99 106 104 97 93 90 91 90 89 79 74 67 64 59 57 48 39 37 37 30 29 28 30 31 34 31 37
92 91 91 95 96 99 101 101 101 105 107 105 106 107 110 109 111 110 106 104 105 104 101 96 94 89 90 84 81 75 70 66 59 57 49 45 38 40 41 33 29 29 31 33 33 37 35
94 94 96 90 95 95 102 100 104 106 107 109 112 110 105 113 115 107 108 100 92 92 92 86 85 94 84 74 68 67 64 63 61 63 57 49 40 40 42 32 27 27 33 35 38 30 30
98 103 103 98 99 100 103 99 98 103 108 109 110 112 113 114 107 89 88 95 87 85 91 91 90 74 62 63 66 66 66 60 57 62 61 50 41 42 43 37 26 27 28 37 37 32 24
101 102 106 99 105 102 92 96 99 100 107 116 115 117 116 117 108 86 86 82 81 73 67 67 63 58 57 64 63 65 61 59 59 61 56 50 42 43 45 42 34 25 28 32 25 21 21
104 110 102 90 91 99 97 104 108 110 112 115 113 116 108 99 84 82 78 74 63 55 56 57 51 57 58 57 61 63 59 58 59 58 53 49 44 40 55 43 32 30 31 33 28 20 20
102 103 94 99 102 104 107 109 111 113 116 115 112 105 94 90 84 73 65 59 49 50 50 51 52 57 56 60 58 55 58 59 59 56 57 46 44 53 54 46 33 32 35 34 30 21 20
100 100 105 107 109 114 115 115 117 111 111 108 100 93 86 84 78 60 54 49 47 47 47 51 52 54 58 56 55 57 59 59 60 56 55 48 50 52 52 48 37 35 39 36 30 26 26
107 110 116 118 119 121 118 110 112 110 104 96 91 84 79 72 61 53 48 46 46 44 45 52 52 51 54 54 55 64 60 57 57 61 54 48 48 51 52 51 40 38 45 37 33 28 25
122 111 116 118 116 114 111 106 104 101 96 89 84 75 71 63 56 50 45 44 42 44 44 52 51 49 51 49 48 53 52 61 56 58 59 52 55 52 48 52 46 43 40 39 37 32 30
111 111 112 112 110 107 104 102 98 91 85 80 75 67 64 59 54 48 46 44 45 45 47 50 50 53 50 50 48 53 54 59 59 62 55 53 54 52 51 53 50 44 40 43 41 35 28
105 104 104 101 100 99 97 93 88 84 78 72 69 64 60 59 55 50 47 45 46 46 55 55 58 54 53 55 56 55 57 55 62 57 59 57 55 56 56 55 51 47 42 41 43 37 33
94 93 92 90 88 85 83 81 78 78 75 71 67 64 63 62 58 53 49 47 46 50 61 59 63 59 56 60 56 54 59 58 47 49 54 59 57 58 58 58 58 55 53 46 42 39 36
82 82 81 81 79 77 76 77 77 77 76 74 70 66 66 67 64 57 51 45 51 55 67 68 65 67 61 62 67 55 59 59 59 52 54 55 57 58 57 60 60 58 50 51 46 41 36
81 80 80 78 77 77 78 78 78 78 77 75 68 63 61 68 66 62 53 46 54 60 67 74 70 74 57 65 68 62 58 66 65 60 56 56 50 50 53 54 54 52 52 51 44 40 41
76 74 72 72 72 73 74 74 75 74 74 71 67 62 60 63 63 60 51 52 59 69 72 76 78 75 74 64 73 67 67 68 58 67 64 58 55 54 52 50 52 53 52 51 49 45 45
69 68 69 70 70 72 72 72 72 73 73 70 69 62 64 67 60 53 55 59 64 73 77 77 81 86 79 75 74 80 76 74 71 63 61 57 55 55 57 58 56 52 54 54 51 49 48
67 66 65 65 67 67 68 69 70 71 70 69 65 62 63 65 53 53 56 64 70 72 77 83 81 80 88 87 80 74 81 79 76 74 69 66 64 65 65 61 58 59 60 58 56 56 54
60 62 63 64 64 65 65 66 66 66 64 62 58 55 56 54 50 60 59 68 71 75 75 79 85 85 82 90 92 87 83 82 81 79 75 73 73 72 71 74 74 68 69 68 64 59 57
56 57 58 58 60 60 61 59 61 61 58 53 50 49 53 48 55 59 65 67 72 75 75 79 84 88 87 87 93 92 90 82 78 76 80 82 79 74 73 72 71 73 73 69 67 62 56
50 51 53 54 54 54 54 55 54 54 50 40 43 45 44 48 57 58 59 61 69 77 75 79 83 84 87 86 90 93 90 90 84 82 80 75 75 76 75 74 77 78 78 80 79 75 70
45 46 47 48 48 48 48 49 50 48 42 36 42 42 41 46 52 53 56 68 71 74 75 76 78 80 80 87 82 82 82 87 90 89 85 86 86 86 83 84 83 81 85 85 85 81 76
43 43 44 44 44 44 43 43 41 39 36 35 40 38 36 43 50 55 60 68 67 69 75 75 76 78 78 75 73 77 79 84 85 90 91 91 91 92 91 94 91 84 89 86 86 83 83
36 37 38 38 38 38 37 37 35 32 33 36 36 35 43 48 52 54 57 63 67 65 67 71 76 78 76 70 70 73 76 76 81 87 85 87 92 93 94 95 90 89 92 94 90 89 86
33 33 33 34 35 37 36 34 32 33 34 34 35 38 42 48 50 56 56 61 66 65 66 70 69 73 70 66 64 67 69 70 73 74 77 80 84 87 89 92 90 89 92 93 94 83 87
33 33 34 33 32 33 33 33 33 32 32 32 35 38 42 46 50 51 52 56 62 64 66 66 64 64 61 59 58 63 65 68 71 72 75 75 78 79 80 77 77 78 82 87 90 86 84
30 31 31 31 30 30 30 31 30 31 31 33 36 38 42 46 48 48 50 53 57 61 64 63 63 61 60 58 60 63 64 66 66 68 70 71 71 71 71 72 71 70 72 79 79 77 76
29 28 30 30 28 27 28 29 31 30 32 32 36 38 41 41 43 47 49 53 57 59 58 57 58 54 55 55 58 63 63 63 63 63 64 65 66 68 67 70 70 71 69 73 74 74 72

GFSGBSN_250_spd_081.txt.gz
Wind_Speed
86 96 91 93 85 85 83 80 84 87 91 91 90 88 88 88 89 92 92 91 89 89 91 90 88 90 92 93 95 92 92 92 90 83 82 77 73 69 64 65 66 67 66 55 44 46 48
105 97 97 93 88 87 90 89 88 87 90 92 96 94 94 94 91 93 93 95 94 92 93 97 97 98 96 98 104 103 101 96 93 88 90 81 70 74 66 67 63 67 63 53 46 46 48
103 93 93 90 95 95 93 93 92 93 91 92 92 98 97 89 92 92 92 94 95 99 102 101 102 106 103 102 105 106 105 102 97 88 83 75 62 66 62 62 58 61 58 51 48 44 46
89 88 87 92 95 95 99 102 99 96 92 96 97 94 96 97 95 96 96 96 97 99 104 105 105 106 105 107 110 107 108 101 90 88 80 70 61 61 54 53 53 55 53 50 49 44 44
88 88 86 90 91 98 99 97 104 101 100 97 96 98 98 95 94 96 100 100 102 104 103 106 105 110 111 110 107 103 101 92 85 73 68 65 59 57 53 50 51 51 50 48 47 46 44
91 89 88 92 98 98 103 103 101 98 103 103 100 98 94 96 100 95 100 99 99 102 105 111 109 113 114 109 99 83 85 69 70 65 64 58 57 55 50 45 46 50 53 50 46 43 45
88 90 90 92 96 99 102 105 101 99 102 106 104 99 102 99 98 98 101 102 102 106 107 109 113 111 99 89 84 80 67 56 59 59 59 55 58 48 46 49 56 54 52 50 46 45 46
92 93 91 91 92 94 96 102 104 101 102 100 102 106 102 105 102 99 98 101 97 102 100 106 112 108 101 76 63 63 61 59 60 56 59 60 48 50 48 53 55 55 55 50 48 47 45
94 94 93 92 93 93 95 94 100 106 102 104 104 103 103 104 102 98 96 105 102 97 93 104 104 86 73 66 58 59 61 58 59 58 58 58 48 49 53 56 57 54 52 51 49 46 43
99 97 98 97 95 95 94 94 91 97 100 105 104 104 101 104 105 97 97 100 99 100 94 94 85 77 61 56 55 57 51 51 45 39 42 45 50 50 52 53 54 54 53 53 47 47 43
95 97 97 97 99 98 97 95 96 93 97 96 98 103 102 107 103 99 96 93 89 91 89 70 71 70 53 53 51 50 40 40 45 41 41 39 53 53 51 52 53 51 55 52 48 47 42
89 89 92 93 96 96 97 97 97 95 94 95 99 96 100 102 101 96 89 84 86 79 75 63 64 63 53 50 47 44 42 41 44 41 36 46 48 53 50 52 50 56 58 51 49 50 46
83 85 87 87 88 91 92 94 97 98 98 100 100 99 100 99 97 94 93 91 90 82 67 62 58 58 51 48 46 44 47 52 52 49 43 54 47 47 49 52 50 55 54 53 52 47 48
77 78 81 82 85 87 86 88 90 93 93 97 94 96 97 100 102 102 96 89 80 67 66 56 56 56 50 48 45 45 52 54 56 49 45 51 54 53 51 51 52 52 52 54 55 54 56
72 75 75 75 79 81 84 83 83 83 83 84 87 87 87 91 90 86 86 73 70 65 57 56 54 54 50 50 46 47 54 55 61 55 46 50 56 59 59 55 58 52 52 52 53 50 54
65 68 71 72 73 75 77 77 80 81 80 77 75 74 76 80 79 75 67 62 62 58 54 55 55 53 52 52 50 52 54 58 64 61 56 50 51 55 56 53 58 54 56 55 50 51 53
57 61 65 66 69 70 72 72 74 75 75 75 72 70 68 71 69 63 55 57 58 57 57 57 54 55 54 56 56 57 56 56 64 69 54 50 48 49 51 46 54 60 58 56 48 51 51
51 54 57 59 62 63 66 68 71 72 72 69 72 69 68 66 61 56 54 57 58 61 59 59 57 57 58 60 61 61 55 63 68 70 60 56 51 50 53 55 53 58 55 56 58 58 55
43 46 50 51 53 56 58 63 67 68 67 65 66 66 70 67 59 60 61 61 61 65 63 62 61 60 60 65 66 65 59 64 68 63 63 54 62 57 54 65 59 57 58 53 54 58 59
37 38 41 44 47 49 52 56 60 62 62 61 60 60 65 63 60 62 64 64 62 64 66 64 64 65 65 66 71 69 67 65 71 69 70 55 60 66 60 61 59 59 57 57 62 64 62
34 34 35 37 41 44 46 49 53 55 55 56 56 61 64 59 62 62 63 59 61 61 64 66 66 68 70 68 75 76 73 70 71 72 69 61 59 63 71 67 61 56 60 59 61 64 62
31 31 31 33 36 39 42 45 47 47 48 52 55 59 62 60 61 60 62 60 65 66 65 66 65 70 72 70 75 83 79 76 72 71 71 74 70 68 68 65 66 66 64 60 65 64 63
26 27 29 30 32 35 38 41 42 44 47 50 52 57 57 56 57 56 58 61 61 65 65 67 65 65 70 75 75 81 82 78 77 76 74 73 74 73 75 73 73 71 74 71 68 65 65
24 24 25 27 29 32 34 36 37 39 42 45 47 48 47 54 54 56 57 57 58 61 65 67 63 64 68 73 73 80 87 85 82 81 80 78 75 73 77 75 73 70 72 67 60 61 62
23 24 26 26 28 31 32 33 35 36 40 43 44 44 47 49 49 50 53 55 57 58 59 61 62 63 62 70 73 75 90 90 87 87 83 83 81 73 74 79 78 76 75 76 77 81 74
25 24 25 26 27 29 31 31 33 36 38 40 42 41 42 46 47 49 49 51 54 55 56 58 59 63 62 66 72 75 81 93 92 89 88 87 87 84 82 80 79 85 80 79 84 88 82
26 26 27 27 28 29 30 31 32 34 37 38 38 37 39 44 42 43 46 48 49 48 53 57 58 58 61 64 68 76 79 86 96 93 92 89 88 89 90 89 86 88 89 90 89 93 87
24 25 27 28 29 30 31 31 33 35 37 38 37 34 38 42 34 38 41 41 41 44 50 54 56 56 57 60 64 74 76 80 86 96 100 95 90 90 91 89 90 93 95 96 98 98 97
25 27 28 29 30 29 29 32 34 35 37 39 36 33 36 36 33 37 37 36 37 40 46 49 52 54 53 57 63 69 76 79 81 85 88 93 99 100 97 95 95 97 96 96 96 96 97

GFSGBSN_250_spd_084.txt.gz
Wind_Speed
93 89 85 86 87 89 90 86 87 82 87 89 85 83 82 80 82 81 82 83 83 82 82 83 83 82 84 86 87 90 86 86 89 88 89 89 90 92 85 84 76 75 68 64 63 60 54
96 92 97 98 97 96 97 94 97 91 92 95 97 94 87 88 85 87 85 89 87 89 89 87 85 84 82 87 89 95 91 94 92 93 94 91 92 91 92 88 79 77 62 60 60 61 56
104 103 106 103 101 99 100 101 96 97 104 98 101 100 93 94 94 90 93 91 87 87 91 94 91 90 92 93 92 93 94 96 98 97 99 101 99 95 91 86 83 69 56 58 55 56 50
106 105 100 96 102 101 100 100 107 107 102 97 97 98 95 93 98 98 95 95 91 89 87 87 87 87 85 92 93 90 95 99 98 101 99 95 98 99 93 85 80 57 56 49 58 51 47
95 94 89 93 98 99 104 105 102 103 102 100 98 98 99 97 99 100 100 99 96 93 89 90 90 92 90 93 92 94 98 101 104 100 100 101 103 86 79 68 61 54 56 50 55 51 42
82 80 84 86 91 94 99 101 101 102 97 99 97 96 99 98 93 94 98 99 101 96 96 93 95 91 93 91 93 96 101 103 104 105 105 92 76 71 60 55 51 55 53 50 51 51 38
92 91 89 86 83 90 90 95 101 99 95 95 95 97 95 95 99 96 97 98 99 97 98 96 89 91 91 91 96 101 103 103 104 109 100 98 82 55 54 53 52 52 52 51 50 47 31
101 101 98 94 91 90 89 90 91 92 93 96 94 94 96 97 98 98 96 95 95 96 97 99 99 96 98 95 95 102 103 103 102 99 79 67 42 51 53 53 52 52 48 48 47 43 35
103 104 102 101 100 98 95 94 92 92 93 95 95 94 96 98 97 100 98 94 97 92 95 101 102 100 102 101 97 101 96 102 99 92 67 54 53 54 52 53 54 49 48 43 42 46 41
96 97 95 94 95 95 97 97 97 95 95 93 95 95 99 101 99 97 94 97 98 96 99 96 98 102 103 104 98 96 94 99 93 71 59 51 56 55 53 53 52 48 41 45 50 52 44
89 89 89 89 87 89 90 93 96 98 98 98 95 96 93 96 96 94 93 98 96 96 103 98 97 99 99 102 101 93 87 88 73 63 57 50 50 55 58 52 50 47 48 48 48 52 49
82 83 85 86 87 86 84 84 87 92 94 97 97 96 97 96 95 91 90 92 92 93 100 98 95 95 101 102 94 81 73 56 57 54 51 45 49 51 54 56 55 50 53 51 50 54 42
76 75 77 78 80 83 82 82 82 84 86 88 90 92 97 96 98 96 93 90 90 88 90 98 93 98 94 94 88 70 59 54 51 49 44 41 42 46 49 50 55 54 55 50 50 51 40
69 71 72 75 76 75 78 78 80 81 81 81 84 87 92 94 95 97 95 92 89 93 95 91 88 92 95 91 78 61 52 52 46 47 47 42 31 32 39 50 49 48 47 47 48 48 46
58 60 63 66 70 72 73 73 75 77 81 79 80 81 83 88 91 94 94 90 90 93 91 89 94 89 86 85 75 57 52 49 48 52 43 48 43 38 43 53 53 51 47 47 49 46 49
51 50 52 56 61 65 67 69 69 72 75 76 79 76 77 81 84 86 82 82 89 90 88 86 84 78 75 64 65 49 51 50 52 54 46 54 45 39 47 53 46 46 50 51 46 47 44
46 46 47 49 52 55 58 61 64 67 68 70 73 74 79 76 77 71 69 76 80 78 77 77 75 72 72 57 57 50 50 50 53 60 52 56 44 40 53 47 44 50 46 48 46 48 45
42 39 41 43 46 48 50 53 56 60 63 63 68 67 73 77 71 65 63 69 68 67 66 67 66 64 60 53 54 53 52 52 54 63 59 59 48 45 49 54 54 55 52 52 52 52 48
40 37 35 36 38 41 45 47 49 51 55 60 61 66 69 71 65 64 68 68 67 63 60 60 59 56 55 51 56 56 54 56 57 65 62 66 56 46 48 50 51 54 54 53 59 55 56
38 35 33 32 33 35 37 42 43 45 49 51 56 62 66 65 62 63 65 67 65 61 56 56 55 57 56 54 57 57 58 61 62 66 67 68 66 53 51 51 55 56 50 51 57 63 57
34 31 30 29 30 32 33 37 39 40 43 44 49 59 64 61 62 64 63 61 62 61 59 58 56 56 59 57 59 60 61 65 67 65 69 65 70 63 58 59 54 55 54 57 52 57 60
31 28 26 26 25 27 28 31 34 37 38 42 48 56 60 57 60 61 59 60 61 62 63 60 58 59 59 60 60 61 62 65 70 67 69 66 70 71 64 65 62 60 65 57 59 61 61
27 26 24 23 23 24 26 27 31 33 37 41 48 50 51 55 58 55 59 62 61 62 60 59 60 62 63 65 57 59 62 64 71 69 73 73 77 72 70 67 65 58 63 64 64 66 64
28 25 23 23 23 22 23 25 28 32 36 41 44 45 45 51 51 54 55 55 57 59 58 59 58 58 57 57 57 60 65 66 75 74 73 78 78 78 76 65 65 64 67 63 63 63 68
30 28 25 24 23 23 23 24 27 31 34 39 39 40 44 45 47 48 51 51 53 54 53 55 57 55 55 55 52 59 67 68 74 80 77 77 82 80 81 75 61 67 70 70 70 67 67
30 28 26 26 25 23 23 25 27 30 33 36 37 38 41 44 45 48 45 46 49 49 50 51 54 51 53 55 54 55 62 71 74 83 81 79 84 83 85 79 76 71 71 73 75 77 69
30 28 27 26 26 25 24 24 26 29 32 34 35 37 37 40 42 41 41 42 44 44 46 52 50 48 50 54 53 54 59 71 75 84 86 83 81 83 85 83 80 79 74 75 78 79 76
29 28 27 27 27 28 27 27 27 28 31 34 34 34 35 37 32 34 36 39 41 43 45 45 45 47 52 53 52 56 62 68 79 82 87 86 84 82 84 85 81 85 85 82 85 84 82
28 28 28 29 29 29 29 30 30 31 32 33 32 32 31 31 28 30 32 35 38 38 39 41 45 45 50 51 54 58 62 67 75 78 83 89 88 85 85 85 86 85 85 87 85 87 87

GFSGBSN_250_spd_087.txt.gz
Wind_Speed
89 90 90 90 91 94 87 91 88 90 87 83 81 84 85 84 80 79 81 82 75 75 78 80 81 81 76 73 75 72 73 74 75 76 76 75 74 79 76 80 83 79 78 75 82 81 81
97 98 100 100 99 95 94 95 94 95 92 88 88 89 91 92 89 89 88 89 86 84 83 83 81 79 80 80 78 79 78 76 79 78 76 79 80 81 80 80 79 80 83 83 85 82 82
107 105 105 107 106 104 103 103 104 105 100 99 95 99 102 99 99 96 98 95 97 91 92 87 84 81 80 88 83 83 82 83 84 82 77 80 82 84 84 83 80 84 83 84 80 80 77
107 114 111 117 122 120 114 112 110 108 105 100 102 100 101 100 100 104 99 99 104 99 98 96 92 85 84 85 84 83 81 80 82 83 86 88 86 84 83 84 86 87 91 89 79 73 68
98 100 99 97 99 102 104 105 105 108 109 107 104 100 101 105 102 100 100 100 103 105 98 101 100 95 90 91 89 85 84 84 83 82 84 84 83 82 85 86 88 90 91 83 78 66 62
82 80 80 79 78 79 83 86 92 94 100 102 98 103 103 104 107 106 106 105 103 101 99 104 96 94 91 91 93 91 89 87 84 84 84 85 86 86 87 92 94 92 84 78 71 66 65
88 91 91 92 92 92 90 88 82 81 82 89 93 99 100 105 105 103 105 104 103 101 100 101 97 95 97 90 91 97 93 89 87 89 87 89 86 89 95 99 96 86 82 71 64 63 63
95 96 100 99 102 100 98 95 97 94 93 84 87 93 100 104 104 102 101 103 102 95 96 94 94 88 89 87 87 92 94 91 92 88 88 87 89 92 95 90 87 62 66 57 59 56 57
96 96 95 94 95 96 97 97 97 98 96 94 90 89 91 100 102 100 101 104 103 98 93 99 91 86 87 85 90 93 91 89 91 87 88 88 91 92 95 76 68 58 53 56 53 52 55
91 89 87 87 88 87 88 89 90 89 89 93 95 93 94 94 98 97 97 101 99 95 95 93 90 83 83 89 86 87 86 84 85 88 89 91 95 94 86 76 55 49 53 57 57 55 48
86 84 83 82 82 84 84 85 85 84 83 85 87 93 97 97 92 91 91 94 92 90 95 89 88 86 88 91 90 87 89 88 89 90 94 96 96 90 73 62 51 49 54 54 53 51 51
80 78 76 74 74 75 76 78 79 79 78 79 81 84 90 95 97 98 96 90 89 89 89 86 84 84 87 89 89 86 91 88 90 89 93 94 89 84 66 58 52 51 52 52 54 51 48
74 73 72 70 69 69 70 70 71 72 74 76 78 79 82 84 92 93 96 92 89 84 87 89 83 80 85 88 88 87 89 89 90 89 90 91 83 70 59 55 48 48 54 54 57 53 38
70 67 64 63 62 62 64 65 65 65 67 71 72 76 77 81 85 87 90 89 87 91 89 90 80 78 82 83 84 83 85 89 87 82 81 84 76 65 55 47 45 49 55 52 49 45 44
64 59 55 53 53 52 55 58 59 60 62 64 69 71 74 80 78 82 84 84 85 91 92 84 78 83 84 84 86 85 86 85 81 76 75 67 57 53 46 44 49 48 49 55 54 48 46
59 53 50 49 48 48 49 51 51 55 57 59 62 64 74 76 77 76 76 75 83 86 84 83 84 84 87 85 84 85 86 81 77 71 69 58 54 45 45 41 43 52 48 50 53 52 45
56 51 47 46 44 44 43 45 45 48 51 52 56 61 70 72 72 70 65 69 79 78 80 80 81 80 84 82 80 85 80 74 66 56 56 49 48 46 45 41 41 41 43 57 53 49 43
52 47 45 42 40 38 38 40 40 41 43 46 50 60 63 66 66 62 65 70 73 72 75 78 79 77 77 77 74 75 72 65 52 49 49 45 49 49 51 43 40 42 43 56 53 45 43
47 46 42 40 37 35 34 35 35 36 38 39 45 55 57 58 56 59 64 68 69 67 67 67 71 72 71 71 66 67 59 48 47 46 47 48 56 53 54 44 39 45 54 51 50 50 48
46 43 41 36 34 33 31 30 30 31 31 36 39 49 50 51 54 56 61 64 66 66 63 62 62 61 60 57 55 55 48 43 46 45 49 53 61 54 57 49 44 49 57 54 53 50 47
42 40 40 35 31 31 28 26 25 26 28 32 37 44 47 45 51 54 60 63 65 65 62 60 58 57 56 53 48 48 45 42 45 46 53 58 62 57 59 56 51 57 59 50 50 53 52
38 37 36 34 30 27 25 23 23 24 27 31 37 40 38 43 48 55 55 60 61 62 59 58 58 56 53 46 43 42 38 41 47 49 60 58 66 65 65 62 56 62 56 53 57 56 57
36 34 33 32 30 25 23 22 23 25 27 30 34 34 37 42 46 50 55 60 59 58 54 56 54 52 54 46 39 45 42 44 49 51 63 63 65 73 70 69 60 58 59 61 59 63 62
35 33 32 30 28 26 22 21 22 23 26 28 29 28 34 37 38 47 51 54 54 54 55 52 50 49 49 48 50 46 40 46 51 53 65 69 69 74 73 75 64 63 60 59 62 64 62
34 32 31 29 26 25 23 21 20 23 24 24 27 30 34 35 40 42 44 47 49 49 52 49 49 49 47 49 51 47 47 44 53 57 66 75 72 74 71 78 71 64 61 63 62 65 67
32 32 31 29 27 25 24 21 21 22 21 21 24 28 32 33 41 40 38 40 44 47 47 49 47 49 51 53 41 42 47 50 54 59 64 75 76 75 76 70 78 77 69 67 67 71 61
32 31 31 30 28 26 25 24 22 23 22 22 23 25 31 36 35 36 37 37 41 43 44 44 46 50 54 40 34 42 47 49 54 61 66 71 78 77 76 75 67 78 79 74 75 70 64
32 31 31 30 29 27 27 26 25 24 24 23 24 25 28 27 28 31 32 38 38 38 41 44 47 49 47 42 43 50 51 48 54 65 67 68 76 78 78 78 72 73 76 81 80 71 63
32 31 31 29 28 27 26 27 27 26 26 24 25 26 24 23 24 29 34 37 38 40 41 42 45 49 45 41 44 49 52 55 58 62 70 73 74 81 78 82 83 82 80 79 78 74 66

GFSGBSN_250_spd_090.txt.gz
Wind_Speed
93 87 83 84 86 89 91 90 90 87 86 88 89 85 88 87 84 82 82 77 79 78 75 70 68 68 65 66 69 67 68 69 70 68 66 66 70 69 67 70 69 63 66 63 64 69 70
97 93 92 93 92 93 93 99 97 102 98 99 93 95 93 90 89 87 89 87 82 83 82 77 74 74 73 73 69 68 70 73 74 76 76 71 72 75 70 72 73 72 69 69 68 69 75
101 103 101 99 103 100 102 104 103 103 105 107 103 96 97 95 94 92 94 89 90 88 88 88 84 81 80 89 78 76 74 73 76 78 77 76 76 76 75 77 76 75 73 71 69 72 76
111 103 104 99 95 99 96 99 100 104 108 106 104 106 104 104 99 98 97 99 95 92 92 92 91 89 86 92 85 86 81 84 76 76 76 76 78 80 75 76 74 70 72 71 69 72 75
105 106 97 87 87 82 82 86 90 92 97 100 103 108 110 112 110 108 106 104 105 99 98 96 98 100 97 98 93 90 93 90 86 80 78 84 80 79 75 75 74 74 70 71 68 76 79
108 95 86 83 82 83 82 81 82 83 84 87 88 91 95 105 114 114 112 111 108 104 102 104 103 96 97 98 94 93 93 92 92 89 86 86 86 85 81 81 79 81 79 76 74 78 80
95 87 85 86 86 84 85 88 87 87 85 83 87 84 85 87 91 92 101 109 111 101 98 102 100 98 97 97 94 95 97 97 95 91 88 86 88 90 88 87 84 83 81 78 73 77 83
88 86 87 88 89 89 89 88 88 88 91 90 90 89 88 85 85 86 90 96 98 102 101 100 94 94 96 97 94 99 93 93 92 94 85 86 88 87 88 88 87 82 84 78 80 84 80
89 89 89 87 85 84 84 83 82 81 83 85 88 89 93 96 93 87 84 86 89 95 95 104 103 101 98 94 99 102 96 95 92 89 87 82 81 79 82 85 86 87 89 85 87 82 81
88 86 86 85 82 80 81 81 80 79 77 77 79 81 85 92 95 95 92 88 83 86 88 93 96 97 99 95 96 98 93 89 86 83 81 82 80 76 79 80 84 84 84 86 88 78 65
85 84 83 81 77 74 75 75 74 73 73 73 73 78 81 81 83 91 93 94 92 90 86 84 89 93 93 97 95 96 95 92 87 83 78 77 77 78 78 81 82 79 83 83 80 72 56
82 79 79 75 71 68 68 68 68 66 67 68 69 72 76 76 80 81 83 93 92 91 87 84 82 86 88 89 90 92 92 84 82 78 78 77 76 77 78 78 79 79 80 79 67 54 45
77 76 75 70 68 66 64 63 62 62 61 61 62 66 71 71 76 74 78 81 87 89 93 90 84 82 82 81 79 77 79 78 80 79 79 78 77 75 74 76 76 74 77 67 56 40 37
75 74 73 67 66 63 60 58 56 55 55 56 58 59 64 70 67 71 74 76 77 84 96 93 86 81 81 79 77 75 76 75 75 73 72 76 75 76 77 75 73 72 67 56 47 37 35
74 70 69 66 63 58 55 52 50 49 49 50 51 54 60 61 63 66 69 67 74 82 88 86 86 88 87 83 81 77 75 73 71 71 73 75 77 76 72 67 64 64 65 47 41 38 39
70 68 67 64 59 52 48 46 46 45 44 45 46 51 51 54 58 62 62 65 76 75 78 73 79 87 90 90 84 79 74 74 73 72 73 74 73 71 66 62 60 55 49 42 38 41 46
67 67 65 61 54 49 45 43 41 40 41 42 41 49 42 48 53 54 55 65 71 71 69 70 75 79 81 83 82 78 77 75 72 70 72 72 71 69 60 54 52 44 43 39 43 45 51
66 66 61 57 49 48 43 40 38 36 37 36 38 41 38 41 45 49 57 64 67 67 67 70 72 75 73 79 79 78 77 75 72 69 69 70 67 66 55 49 43 41 43 41 43 48 54
64 64 58 52 46 44 40 38 34 32 32 33 36 33 31 33 38 47 56 63 64 65 66 65 67 69 69 71 74 73 72 71 68 66 66 65 62 57 45 42 45 49 46 40 45 49 55
62 61 55 48 44 41 37 36 33 30 29 30 30 26 27 28 35 45 54 60 59 59 62 64 63 64 65 66 68 67 67 65 62 59 57 55 53 50 44 45 52 52 50 46 47 50 51
60 58 50 45 43 38 35 33 31 27 26 27 26 25 24 27 34 45 51 53 53 54 56 56 60 59 58 58 60 62 60 59 54 54 54 52 51 47 48 51 57 57 50 49 49 45 51
57 54 47 43 38 35 33 32 29 25 23 22 21 19 24 31 37 37 40 47 50 51 55 54 58 57 55 55 51 50 48 45 43 49 49 48 50 48 52 55 64 62 55 50 52 49 54
54 49 43 41 36 32 31 29 26 23 20 19 17 19 20 26 31 39 45 48 50 49 51 51 51 50 50 49 47 46 46 43 43 46 47 49 51 53 57 58 65 66 57 49 51 53 60
50 46 40 38 34 31 29 28 23 21 18 17 17 21 24 26 30 37 43 44 48 48 48 47 49 49 48 47 47 46 47 41 40 44 49 52 55 58 60 59 64 69 62 55 51 61 62
46 43 38 35 32 30 27 27 22 19 18 16 16 19 22 26 31 34 37 36 40 42 45 43 45 47 44 45 46 44 42 40 43 44 47 51 55 61 65 61 69 67 66 59 54 61 63
43 40 35 32 30 28 27 26 24 19 17 16 17 18 22 29 32 30 32 36 37 39 43 43 44 45 44 46 46 44 42 43 44 47 49 51 56 61 67 64 67 72 74 65 60 63 64
41 37 33 30 29 27 27 25 24 22 17 18 19 21 21 21 24 28 31 34 35 39 41 39 42 45 45 48 45 42 40 42 48 49 51 56 58 61 70 66 64 75 72 70 67 63 68
38 35 31 29 28 26 26 25 24 23 20 20 20 20 19 22 26 28 30 35 36 37 39 40 43 45 49 45 41 40 41 40 45 51 50 55 57 60 69 69 65 69 75 76 68 66 71
36 33 31 29 27 26 26 25 24 23 22 21 20 19 21 24 26 27 32 35 37 40 40 40 44 47 49 43 40 40 43 42 48 53 54 53 58 62 66 72 68 70 68 75 75 73 75

GFSGBSN_250_spd_093.txt.gz
Wind_Speed
83 83 84 82 87 85 89 93 96 95 94 92 95 96 96 95 91 90 90 85 83 81 79 73 73 67 69 67 71 59 65 69 64 62 63 63 62 62 58 59 60 53 54 61 64 67 66
89 88 91 91 93 91 97 99 107 105 99 99 100 98 99 99 101 97 96 94 89 88 85 78 76 79 72 72 76 69 70 68 69 69 71 68 67 67 63 63 67 66 63 65 68 71 71
94 97 88 85 92 96 99 101 103 102 101 101 104 105 103 102 103 106 105 104 97 93 92 90 85 80 76 87 80 75 77 74 72 73 69 70 71 71 65 63 69 71 70 70 70 69 71
92 87 88 93 99 103 105 99 94 97 94 92 97 99 106 109 108 108 108 108 110 104 97 97 94 87 79 92 82 85 80 82 78 76 79 75 74 70 66 64 64 70 71 68 70 73 75
95 95 103 101 109 115 108 96 91 89 84 82 83 89 96 98 106 107 109 110 112 109 101 98 96 93 89 92 92 85 87 89 85 81 84 80 77 78 76 75 73 66 63 72 76 78 76
97 100 106 111 117 110 99 92 89 86 83 83 83 81 86 91 96 102 102 108 113 111 104 99 95 91 92 97 94 93 90 91 93 94 92 91 86 75 80 83 82 80 77 72 77 79 81
100 102 110 115 110 99 93 89 86 82 79 79 79 82 82 86 93 93 94 97 105 101 99 98 96 97 95 95 96 94 95 95 91 95 96 96 93 91 91 85 81 83 79 81 77 82 84
104 106 114 113 102 95 90 86 83 79 76 75 75 75 77 80 88 89 93 91 93 89 85 93 94 98 101 103 100 97 96 97 98 97 99 95 91 97 91 84 83 81 82 82 78 82 83
108 115 112 102 94 89 86 82 80 78 77 74 73 72 71 74 84 80 85 92 89 86 78 80 82 82 100 103 102 104 103 99 97 98 99 98 91 93 91 88 86 83 82 80 77 75 80
113 109 100 92 88 84 84 81 78 76 75 73 72 71 71 72 78 76 77 80 88 88 81 71 75 78 88 86 91 98 92 92 95 95 94 90 88 85 88 86 84 81 84 80 72 73 75
106 100 90 87 84 84 83 78 74 71 70 69 67 66 67 70 73 71 70 73 78 84 84 82 77 71 78 80 84 91 89 90 86 86 85 87 87 84 83 85 86 82 85 74 69 72 70
100 90 85 83 83 79 79 73 69 66 65 64 63 61 61 63 67 64 67 71 71 74 75 86 84 76 78 80 77 84 84 90 94 92 87 85 83 84 83 84 86 85 75 74 69 67 60
95 83 81 81 79 75 74 67 65 64 60 59 59 57 57 58 55 60 63 65 67 64 71 86 91 89 84 81 75 76 80 85 86 87 88 90 87 87 86 85 84 77 72 71 70 67 58
83 78 78 79 75 72 69 65 64 60 56 56 55 55 52 49 47 54 58 58 57 66 72 75 86 89 91 85 81 79 77 74 76 78 82 81 78 79 79 74 72 71 70 70 65 56 52
76 75 77 75 72 70 65 63 62 58 52 51 52 50 44 45 46 48 50 49 57 63 70 69 74 83 91 92 89 84 80 75 69 70 72 72 74 74 69 68 65 64 64 64 60 50 51
74 75 75 71 69 68 63 62 59 54 48 47 48 46 41 39 41 39 41 49 57 60 63 67 71 74 81 89 87 79 75 71 69 69 67 67 69 66 65 65 62 61 60 63 56 47 42
74 73 72 69 67 67 62 59 55 49 43 43 43 38 35 33 34 33 38 49 54 59 63 65 69 73 74 73 80 85 84 80 76 74 71 69 66 66 65 63 63 60 60 56 51 39 34
73 71 71 68 66 65 60 57 52 44 40 39 38 32 30 29 30 32 37 48 52 58 60 62 62 65 69 71 75 78 80 81 78 75 73 70 69 70 67 65 62 59 56 54 46 37 36
71 69 70 67 65 62 57 54 49 39 37 35 31 28 25 26 27 32 39 48 51 53 58 59 60 65 67 69 72 71 74 78 81 78 76 75 74 72 68 66 62 58 52 51 43 38 37
70 69 68 67 63 59 54 51 43 36 34 31 27 22 22 24 27 32 37 40 46 50 56 56 59 63 64 64 65 69 69 69 69 69 68 68 69 68 69 66 59 53 50 45 41 38 42
69 68 67 64 60 56 52 47 39 34 32 27 23 21 21 21 26 31 36 37 45 49 53 54 55 55 58 59 61 61 63 64 64 65 65 66 68 68 68 62 53 47 45 40 40 37 42
68 66 64 59 56 53 50 43 37 33 28 23 20 18 20 20 25 30 33 33 42 44 47 49 50 51 53 54 56 57 57 59 61 62 64 65 65 64 61 57 48 44 45 41 44 41 48
67 64 58 54 53 49 46 39 34 32 25 21 18 16 19 23 23 26 31 32 35 38 44 46 46 46 45 47 50 52 55 58 60 61 61 60 61 60 58 53 48 46 44 47 52 46 47
64 59 53 49 50 47 42 36 32 28 23 20 17 15 17 21 25 25 28 32 32 34 39 43 43 45 46 48 50 50 50 51 51 53 54 56 59 56 54 50 45 48 51 52 54 47 49
60 54 49 45 47 44 39 34 30 25 22 19 16 15 18 20 22 27 25 25 31 38 39 42 44 46 46 46 46 47 47 47 47 49 51 51 51 50 48 48 48 54 56 59 61 54 51
55 51 46 43 44 41 36 32 28 23 22 18 15 15 16 16 19 24 26 28 28 33 39 41 41 40 43 44 45 44 44 44 44 46 47 47 48 47 48 49 52 56 57 64 66 57 54
53 49 45 41 42 38 34 31 26 20 21 18 15 14 15 19 22 24 26 27 29 33 34 38 42 43 42 42 43 43 42 41 43 43 43 46 47 48 48 49 55 61 57 66 69 63 58
52 47 44 40 40 35 32 30 26 21 19 18 15 15 17 20 21 23 28 28 30 32 34 38 41 43 43 44 44 42 39 40 43 43 45 49 50 52 48 49 60 66 61 61 69 70 65
50 46 42 38 37 33 30 29 27 23 20 18 17 17 18 19 20 24 26 28 31 35 38 39 43 44 44 45 44 42 43 41 42 45 48 52 51 52 48 52 60 69 62 57 68 73 73

GFSGBSN_250_spd_096.txt.gz
Wind_Speed
80 82 86 88 87 87 88 90 89 92 95 100 99 102 104 105 107 110 111 107 106 102 98 94 87 81 79 69 71 70 66 64 65 66 65 67 64 59 57 61 59 50 53 56 57 60 57
80 84 87 90 90 91 92 90 93 99 95 90 98 100 104 110 117 117 117 112 110 111 109 101 95 90 83 73 82 76 71 71 69 66 65 70 71 71 66 59 60 61 60 61 59 59 60
86 89 91 88 92 91 90 91 90 89 92 97 98 101 108 113 115 118 117 111 115 112 113 109 105 99 89 85 89 81 77 79 75 75 72 71 73 70 71 68 63 63 64 63 63 64 65
89 88 90 87 85 90 87 88 90 90 95 99 104 108 108 106 106 106 104 103 109 110 110 113 111 102 89 99 95 91 85 82 81 80 81 77 75 71 72 75 74 72 72 69 66 69 67
88 89 88 87 88 94 91 90 96 98 101 105 106 104 96 95 90 91 90 91 99 101 105 110 112 112 101 104 101 97 92 91 85 86 87 86 80 76 74 72 73 74 70 68 68 70 68
88 90 91 92 96 98 93 98 98 100 102 102 95 88 84 80 81 82 82 80 89 94 97 103 108 110 111 110 106 102 97 98 94 91 92 89 85 83 80 79 78 79 78 74 71 71 74
93 96 95 96 100 94 97 103 103 99 96 93 85 79 74 73 75 74 74 76 77 83 87 94 100 105 110 114 112 108 103 102 102 98 93 92 87 82 91 91 84 83 78 76 74 75 75
94 96 101 98 98 97 102 106 99 94 89 84 77 75 73 70 72 72 72 71 72 76 76 86 95 100 103 110 110 116 108 110 103 105 101 96 90 89 90 90 91 87 83 83 83 84 82
102 99 104 101 99 101 104 97 92 88 83 78 75 74 72 70 69 67 68 67 69 69 68 80 87 88 97 101 101 105 109 108 102 102 104 101 95 96 95 93 90 90 91 89 89 89 89
102 103 102 102 99 103 101 93 88 83 79 77 75 74 72 70 68 63 64 63 63 65 59 68 85 82 85 86 83 97 99 102 101 98 101 100 100 98 95 96 94 88 89 89 88 89 84
103 104 102 102 103 102 96 90 85 79 79 77 75 72 68 65 63 59 62 61 58 57 52 70 82 83 80 79 71 80 82 85 86 90 95 96 94 92 92 92 88 87 88 87 90 82 74
102 101 103 103 102 97 91 86 82 80 79 74 71 68 64 61 56 57 56 54 54 51 51 69 74 80 84 83 72 75 71 78 81 84 85 87 89 91 93 92 91 87 86 81 75 70 63
98 102 102 102 96 90 86 82 80 79 76 70 67 65 61 56 55 51 49 46 46 46 56 63 69 74 79 85 77 74 69 69 81 83 81 83 83 84 81 79 79 78 75 75 72 71 70
101 99 102 98 91 85 82 80 78 78 71 66 64 62 56 52 49 45 41 38 37 50 51 58 64 70 78 82 82 79 73 65 68 74 77 78 78 78 79 76 78 75 71 72 72 75 79
98 101 102 95 85 81 78 78 76 73 65 63 61 57 54 46 44 40 38 36 40 44 50 55 60 67 72 79 80 80 74 67 65 66 70 71 74 77 77 81 82 80 81 80 78 73 68
98 101 98 87 80 76 76 74 72 67 61 61 57 53 50 42 39 37 36 37 39 41 48 52 57 63 68 73 79 82 79 72 66 65 67 66 69 71 74 76 76 75 72 69 65 61 51
99 98 90 81 75 74 74 70 67 63 60 58 52 48 43 39 36 34 35 38 38 42 44 51 55 61 67 68 70 80 82 78 74 69 67 67 65 64 66 64 61 64 61 60 57 52 44
98 93 83 75 72 72 70 66 64 61 58 52 47 42 37 35 33 32 32 34 35 36 44 50 55 59 62 66 67 71 81 81 81 79 77 76 72 68 66 60 60 59 56 54 51 48 39
91 85 77 72 71 69 66 63 63 60 55 48 42 36 34 30 28 28 27 28 32 37 43 48 51 57 58 62 67 68 73 81 84 84 82 83 78 72 67 64 64 63 58 55 50 47 41
85 76 72 69 69 67 64 64 62 56 51 43 38 34 30 26 24 25 25 26 31 36 41 47 50 56 54 60 65 68 70 73 77 78 80 78 78 74 71 68 67 64 62 59 53 47 40
75 71 70 68 65 62 63 62 60 51 47 38 35 31 27 23 20 22 21 25 29 35 42 47 49 55 55 60 65 68 69 67 66 67 69 72 73 76 77 72 68 66 66 56 50 44 37
70 69 68 66 64 61 61 58 56 47 45 34 32 28 24 21 18 19 20 22 29 35 38 43 45 47 54 57 59 58 59 58 61 62 63 63 64 67 67 66 67 68 59 52 44 37 35
69 68 66 64 62 60 58 55 52 43 43 33 27 27 21 18 17 19 19 23 24 31 33 34 38 44 44 44 46 52 55 56 57 60 61 61 59 58 61 60 58 56 52 48 42 36 32
69 67 64 62 61 58 54 51 48 41 39 31 26 26 20 17 16 16 19 19 23 27 31 34 39 41 41 43 48 50 52 53 54 56 58 61 59 57 58 56 56 53 47 44 40 34 33
69 66 64 61 59 56 50 48 45 40 35 31 24 24 19 16 15 15 17 23 27 29 29 31 37 40 43 43 45 48 50 52 52 52 54 56 56 57 57 55 54 50 46 44 39 36 38
68 65 63 60 56 53 47 45 42 39 33 30 25 22 17 15 17 16 16 23 25 29 34 36 38 40 43 46 49 51 50 49 48 49 49 50 52 53 52 52 51 52 48 45 42 40 41
67 65 62 58 53 50 45 42 40 36 31 28 25 22 17 14 15 16 17 23 27 29 35 36 39 42 44 45 45 45 45 45 44 47 47 47 48 50 47 48 50 52 48 43 41 44 46
67 64 59 54 51 48 43 39 38 35 30 27 22 22 18 14 15 15 18 21 28 32 35 36 38 39 40 42 43 45 44 42 44 46 45 45 46 46 44 47 51 47 44 41 43 47 53
63 60 57 54 50 45 41 37 36 33 31 25 23 20 20 16 16 16 18 21 25 31 34 36 37 39 41 43 43 44 43 42 42 42 42 43 44 45 46 48 50 47 45 41 46 52 60

GFSGBSN_250_spd_099.txt.gz
Wind_Speed
72 77 78 77 76 78 83 84 83 86 87 89 93 96 95 96 95 96 100 103 103 106 106 106 105 103 103 97 91 94 85 80 75 74 72 71 65 63 62 63 64 61 55 57 60 63 59
73 76 76 76 78 84 86 88 89 94 92 94 95 98 96 96 99 102 105 104 110 114 113 116 114 108 106 102 107 103 95 88 85 79 75 73 71 68 64 62 63 63 59 57 65 61 61
77 75 81 78 82 87 86 84 90 88 91 89 90 89 92 91 89 98 102 106 110 112 115 112 113 118 111 104 109 108 104 97 89 87 85 81 75 70 66 64 65 63 62 59 65 64 62
85 88 87 84 87 87 84 91 90 89 88 92 88 88 90 91 97 100 102 105 105 105 108 112 113 110 105 115 116 110 111 107 98 94 90 87 82 76 70 66 68 69 67 65 66 70 68
90 92 85 87 93 92 98 95 96 92 92 93 91 91 93 97 102 98 94 92 92 89 91 95 95 96 99 101 109 112 111 112 109 102 97 91 85 81 77 73 69 68 69 70 70 73 77
96 87 87 91 94 96 99 102 102 98 93 91 93 95 98 98 94 84 78 79 79 76 77 82 82 87 84 91 103 106 107 111 110 108 103 96 90 83 81 77 76 78 75 73 71 74 73
89 86 89 97 101 103 103 107 106 96 92 93 96 100 96 92 84 77 70 67 70 67 70 70 71 71 80 86 91 98 105 109 109 109 108 103 96 84 84 88 86 84 79 75 73 75 74
88 91 98 101 106 107 109 105 107 96 95 98 99 93 87 82 74 70 67 65 63 63 58 66 66 65 73 82 81 92 98 106 107 107 111 109 98 95 95 94 89 86 85 83 80 80 76
93 97 103 103 110 110 110 103 104 97 96 98 95 86 81 73 71 70 67 66 59 55 48 65 63 63 70 71 78 83 95 103 105 107 108 105 102 101 100 97 94 92 88 87 86 86 84
99 102 106 108 112 110 106 104 100 99 99 97 88 82 75 69 70 68 67 61 56 49 38 66 66 59 67 70 71 82 84 97 101 103 105 108 106 104 104 102 98 98 94 90 87 85 85
105 104 110 113 114 107 104 103 101 98 99 91 83 77 73 69 67 66 63 55 52 45 44 57 58 58 65 66 70 79 79 81 95 99 103 101 101 109 105 103 105 96 97 95 92 90 87
107 109 115 117 112 107 105 99 100 96 94 87 79 75 72 70 64 61 59 52 49 45 49 51 55 58 61 62 66 75 74 75 79 89 97 101 102 101 103 104 102 101 102 98 98 96 91
109 114 116 111 107 102 100 98 96 95 90 82 78 75 70 66 64 58 54 49 46 45 45 47 51 54 54 60 64 71 71 73 71 72 77 85 89 94 99 99 98 98 97 94 94 93 92
115 111 109 109 103 98 96 93 95 90 85 78 77 73 68 62 59 54 49 44 42 40 38 40 46 50 52 57 65 67 71 73 70 67 69 70 73 80 84 85 85 86 88 89 84 83 80
111 107 107 102 101 95 93 93 91 86 80 76 74 68 64 60 53 49 42 39 38 34 31 38 44 46 53 57 65 65 70 74 69 63 59 60 61 66 68 68 69 70 70 70 72 72 70
111 109 103 101 94 92 90 92 87 83 76 74 70 65 59 55 50 43 38 35 31 30 29 35 39 46 52 56 62 64 67 73 69 63 58 55 55 58 64 65 63 65 65 66 65 62 62
110 105 101 94 90 88 90 87 85 77 73 71 65 61 55 50 44 37 34 30 26 23 25 31 37 45 48 56 61 64 65 72 70 66 63 56 54 54 58 61 61 61 62 64 65 64 63
99 96 93 89 87 88 86 84 78 71 69 67 60 56 50 46 37 32 29 26 23 22 26 29 36 43 49 56 57 62 64 69 73 71 63 61 58 56 53 55 59 63 63 63 61 58 56
90 91 86 85 86 85 83 78 71 68 65 64 57 52 46 39 33 28 26 23 21 25 25 28 34 42 49 54 56 59 61 66 70 70 68 67 61 57 56 55 58 58 54 50 48 46 41
84 83 84 83 82 82 79 71 66 64 60 60 54 48 42 32 28 25 23 21 20 21 26 30 34 43 52 54 55 59 61 65 71 72 70 70 70 66 62 61 60 59 57 53 50 48 43
82 82 80 80 82 79 70 66 64 60 58 56 50 44 38 29 27 24 20 17 16 20 25 28 34 44 47 53 56 59 64 65 70 75 78 79 77 75 71 68 65 64 60 58 55 51 47
80 80 79 79 76 71 67 64 61 57 55 52 46 42 35 28 25 22 19 17 16 19 21 25 32 41 47 56 58 61 64 67 70 74 77 76 76 75 72 69 67 67 65 64 63 54 54
78 78 77 77 74 67 65 62 59 56 53 48 42 40 30 27 23 21 17 16 16 15 15 21 30 41 46 50 55 57 57 62 64 65 63 67 72 72 70 69 68 69 66 64 64 60 54
81 80 78 76 69 66 62 59 56 54 50 45 39 38 27 26 22 19 17 16 16 17 19 24 29 36 41 45 51 53 54 54 52 56 54 56 59 63 63 64 62 61 59 56 56 49 48
82 82 77 71 66 63 59 57 55 53 48 43 37 36 26 25 22 17 16 16 18 22 25 28 30 32 35 38 46 46 46 45 45 48 52 53 55 57 58 57 57 56 53 50 50 44 39
82 76 71 66 64 62 58 55 54 50 45 41 34 33 26 23 21 18 17 17 20 26 27 30 31 36 39 43 41 41 45 46 48 48 50 52 53 55 55 56 57 55 52 48 47 40 37
74 72 68 65 64 61 58 56 51 47 43 39 32 31 26 22 21 19 17 18 19 24 26 31 33 35 40 43 44 47 49 49 48 47 48 48 50 50 51 56 58 55 50 48 49 42 38
72 70 69 66 63 60 56 52 47 44 41 37 31 29 25 21 19 20 18 19 20 22 26 30 36 38 39 42 47 47 45 46 46 46 45 44 45 46 47 51 53 49 47 47 47 45 39
72 69 67 64 61 57 53 47 45 42 39 34 31 24 25 22 19 19 18 19 20 22 26 30 32 37 40 41 44 44 46 44 43 43 43 43 45 46 46 47 47 44 45 45 45 45 40

GFSGBSN_250_spd_102.txt.gz
Wind_Speed
64 65 67 69 71 69 68 77 73 73 79 83 83 79 81 83 82 86 92 96 97 97 99 100 100 99 97 98 98 101 97 97 97 97 96 91 87 82 75 69 71 63 62 57 55 61 63
71 74 72 69 70 78 78 80 83 86 85 82 76 81 84 88 85 90 88 91 98 99 100 103 105 105 107 103 105 108 105 104 98 98 100 98 93 87 81 75 70 66 63 58 56 56 64
75 80 80 78 80 82 84 89 89 91 91 82 85 90 93 91 92 88 87 89 94 96 94 97 103 105 106 105 116 117 118 112 108 102 102 102 102 97 85 79 72 71 68 65 60 60 64
75 80 80 81 84 81 86 90 93 96 91 87 91 96 100 98 95 89 86 87 92 93 94 97 100 101 99 104 114 118 118 116 115 112 108 108 104 102 93 84 75 72 72 68 66 64 66
75 77 80 84 78 85 91 96 100 95 88 91 97 101 105 107 98 91 89 91 93 95 94 94 92 94 94 101 112 117 111 114 110 110 116 115 108 100 99 94 81 75 72 72 69 68 69
74 76 79 82 85 90 94 101 98 90 92 95 101 105 111 106 99 94 93 93 90 86 82 81 80 82 79 87 96 102 107 108 110 101 103 107 110 106 100 97 89 82 79 79 77 73 71
74 77 82 86 93 94 100 101 92 92 96 103 107 110 112 103 99 95 95 88 82 77 73 75 77 71 73 79 79 87 95 103 105 99 95 99 102 102 102 97 99 96 89 84 80 74 73
80 83 88 91 94 99 100 93 94 96 102 109 105 115 106 102 98 96 92 82 77 69 57 76 74 65 69 67 65 78 84 91 90 95 94 96 88 98 103 103 102 101 92 88 85 81 76
86 90 91 95 95 95 92 95 99 102 109 109 115 108 102 100 96 95 87 78 70 62 55 67 70 69 61 64 63 75 73 78 81 83 83 86 90 98 97 104 101 103 98 91 87 84 80
95 84 90 91 93 95 99 102 106 108 111 117 106 103 101 98 95 90 82 73 66 58 51 60 63 65 60 54 67 67 68 71 71 75 79 79 83 91 98 102 103 104 104 97 91 85 83
90 95 91 91 96 99 102 105 108 111 114 113 104 102 99 96 90 84 75 70 62 53 47 52 54 56 57 49 61 62 65 64 67 69 72 73 77 85 96 101 103 101 103 101 97 90 84
85 87 91 97 100 105 106 109 112 112 116 106 105 101 97 93 84 74 69 66 59 52 48 50 47 51 51 43 55 60 61 60 63 66 69 70 73 79 88 98 101 97 100 102 99 95 89
91 91 98 102 103 104 107 112 112 117 109 109 100 99 94 85 76 71 67 61 56 52 46 45 42 46 46 41 50 54 55 58 57 61 64 65 67 72 80 91 97 98 97 99 100 98 94
93 99 99 103 101 104 108 110 113 108 108 101 97 95 87 79 70 66 64 59 52 47 45 38 38 39 42 42 47 50 52 58 57 62 64 63 62 65 73 81 88 94 95 92 95 94 92
97 99 100 102 108 108 110 112 111 105 99 96 93 88 81 71 66 63 59 53 47 42 37 33 34 35 38 38 46 48 51 57 58 62 64 63 60 62 66 74 80 87 90 89 89 92 93
97 99 103 102 105 110 112 110 105 98 96 91 90 83 76 68 64 60 52 46 40 34 30 30 31 34 34 38 43 46 50 53 56 60 62 63 59 57 58 61 66 71 76 81 86 87 87
104 102 104 107 110 112 104 101 96 94 87 87 86 77 70 64 61 56 46 39 34 30 26 25 28 31 28 32 38 43 47 51 53 58 61 60 56 52 51 51 54 58 60 63 65 66 67
106 110 111 111 112 103 100 94 92 86 83 83 79 71 67 62 58 49 40 35 29 24 21 22 26 30 25 31 38 43 46 51 54 62 65 60 57 52 49 48 48 49 48 47 47 48 48
106 106 104 106 102 99 94 90 84 81 79 78 71 66 62 60 52 45 35 29 24 18 17 20 25 26 27 33 38 43 48 53 57 63 63 61 58 52 50 46 43 42 44 44 44 46 48
107 102 102 101 96 95 89 81 80 76 74 73 65 63 59 56 48 40 31 24 19 17 17 19 23 25 31 35 39 46 48 52 56 62 65 61 59 56 53 50 46 42 43 47 50 52 54
107 105 100 96 92 86 79 76 76 71 71 68 60 58 56 51 44 38 28 21 15 15 15 17 19 24 29 32 41 49 50 54 57 63 67 66 64 62 56 52 49 47 46 47 50 51 52
105 101 97 91 84 77 74 73 71 67 66 62 57 54 52 46 40 35 26 18 12 12 13 15 21 26 29 35 42 46 51 55 58 62 70 74 70 68 63 59 57 54 52 51 51 53 52
105 96 86 78 74 73 72 71 70 67 62 59 53 50 50 42 37 33 25 17 11 11 14 17 21 24 25 35 42 49 54 56 59 62 66 71 75 72 69 65 63 59 56 56 55 52 51
88 81 75 74 72 71 70 70 67 65 59 55 50 47 45 38 34 31 24 15 14 15 19 22 24 24 29 37 43 48 53 54 56 61 63 66 63 67 66 65 62 62 61 60 58 57 56
81 76 73 71 70 69 70 69 67 60 57 52 50 46 42 36 32 28 22 17 16 18 21 23 26 26 28 34 41 49 53 53 52 55 58 59 58 62 65 65 65 64 63 63 62 62 61
74 73 72 71 71 70 71 69 63 57 55 50 48 43 40 33 30 26 22 18 18 20 20 25 29 27 28 31 37 45 47 48 48 50 52 52 52 58 62 64 67 67 65 66 64 63 60
74 74 73 72 72 72 70 65 60 56 55 47 44 40 37 32 29 23 21 18 18 20 20 23 29 30 30 30 34 41 44 44 45 43 48 49 51 55 59 59 61 62 61 61 60 57 54
76 76 74 74 74 72 67 64 59 56 50 45 42 39 34 31 27 21 20 18 18 20 20 22 27 31 33 34 35 40 44 45 46 45 46 47 50 54 56 56 56 56 57 59 56 52 50
79 78 76 74 70 68 65 62 57 52 48 42 40 36 34 31 25 20 19 19 18 19 21 22 26 32 35 36 39 41 43 43 47 50 50 48 49 51 52 54 52 52 53 53 52 51 48

GFSGBSN_250_spd_108.txt.gz
Wind_Speed
56 55 55 59 60 65 67 66 67 72 74 74 76 74 75 74 75 75 76 78 81 83 89 90 90 85 92 94 99 102 95 96 97 102 102 102 101 100 94 92 95 88 80 84 81 85 83
67 66 67 69 69 65 73 73 72 72 74 74 75 76 76 77 82 85 85 83 83 88 90 95 96 97 93 99 107 104 99 95 98 104 104 105 102 107 103 100 97 90 91 87 84 82 82
72 70 68 67 68 71 71 75 76 74 75 76 75 76 76 73 75 78 85 88 92 95 98 103 103 105 102 103 95 95 93 92 94 95 97 100 105 104 104 108 103 98 99 91 86 80 79
71 72 69 69 69 73 71 73 76 75 76 77 79 80 84 89 90 92 96 99 101 100 100 98 102 104 94 88 90 93 96 96 94 93 93 99 104 107 102 102 109 109 105 100 81 84 83
73 73 72 68 68 68 69 73 76 76 77 77 79 82 87 88 91 95 96 99 96 95 100 105 101 94 92 93 97 94 95 95 94 92 93 96 104 103 105 99 102 105 102 96 89 91 90
71 70 67 62 66 65 70 72 71 78 75 78 83 84 87 88 88 94 98 100 99 108 104 102 102 97 98 101 98 93 96 95 94 93 93 95 102 104 100 98 93 92 99 101 95 93 92
73 66 70 71 71 72 69 74 77 79 75 73 80 79 83 88 91 91 96 103 106 107 102 104 107 98 99 101 95 96 94 85 85 83 82 88 96 95 92 95 97 101 104 103 98 98 95
76 72 74 73 72 79 79 77 82 83 87 88 82 86 89 93 96 99 100 109 106 108 99 112 106 102 103 102 95 96 83 70 70 69 77 78 75 70 83 94 97 100 99 97 97 99 102
75 78 77 74 69 73 72 79 81 83 82 82 84 91 93 94 96 102 109 113 109 113 110 108 100 96 95 98 93 89 79 64 62 63 71 69 56 71 78 82 83 90 93 91 90 99 107
70 74 76 81 83 77 78 80 81 82 85 87 91 91 95 96 104 108 111 111 115 114 111 110 97 88 82 77 76 74 77 65 58 59 66 58 61 62 65 68 72 79 83 88 94 100 101
67 69 76 77 82 74 79 83 82 84 89 91 90 92 95 104 106 111 111 115 116 114 110 109 104 91 78 70 67 62 62 59 56 55 54 50 56 56 53 53 65 65 79 88 93 94 92
79 71 79 78 77 80 84 86 87 85 84 84 89 95 96 103 108 109 114 112 114 112 114 102 95 83 72 67 60 52 50 50 50 46 42 45 48 49 48 53 53 61 73 73 80 89 91
82 79 75 80 75 77 83 89 87 87 88 87 91 95 100 104 109 114 114 119 109 111 103 92 79 70 62 56 49 44 41 41 41 37 38 41 42 43 46 46 48 52 58 66 73 78 72
86 82 79 78 80 81 84 85 81 84 86 88 92 97 102 108 108 116 114 106 106 101 93 83 69 63 54 45 39 35 32 33 31 34 32 35 38 39 40 42 44 45 49 54 55 57 64
83 87 86 81 81 83 87 86 85 88 87 91 93 98 104 105 110 110 111 109 99 90 81 69 64 56 46 37 32 27 25 28 29 28 30 32 35 35 39 40 39 40 35 40 42 43 50
80 86 90 80 79 86 86 86 84 87 89 93 98 100 103 108 108 116 104 91 91 85 72 63 59 48 41 33 24 19 20 23 23 25 27 32 35 38 37 36 36 35 38 35 34 33 43
76 84 88 87 82 86 91 91 88 87 89 91 95 98 104 109 114 107 97 92 84 76 66 61 52 43 38 29 20 16 18 18 22 24 26 30 31 33 31 33 36 36 32 32 42 42 37
74 74 81 85 91 93 92 91 89 90 90 94 95 97 105 107 106 105 95 87 77 73 62 54 45 38 33 24 17 13 18 18 24 27 27 25 30 32 36 37 38 33 34 38 47 47 47
67 71 78 84 86 86 86 86 87 91 89 93 101 102 102 104 106 101 91 82 71 66 58 48 41 35 28 19 15 12 17 17 22 22 25 27 30 36 34 35 33 32 36 38 36 45 53
71 75 74 75 80 81 84 84 87 89 91 93 98 101 98 103 99 94 89 74 67 59 53 43 37 30 24 15 12 13 18 22 29 33 31 34 35 37 41 40 36 36 41 48 52 53 57
76 79 75 76 76 79 81 81 86 87 91 94 95 96 100 99 93 88 85 66 60 51 46 40 30 26 21 12 9 15 20 27 31 34 38 40 44 48 45 39 37 40 45 48 51 54 53
79 77 75 77 79 81 83 83 85 89 91 94 92 95 100 96 95 86 73 65 53 48 39 37 31 22 19 14 9 14 23 32 35 38 43 46 50 48 40 45 46 48 48 48 47 49 53
82 81 83 84 83 83 81 86 89 88 92 94 94 97 99 95 84 79 67 59 49 44 38 33 30 20 19 15 11 18 27 34 38 44 45 51 52 50 49 43 45 43 45 45 46 53 53
83 82 80 83 82 84 86 86 86 90 96 98 97 93 89 85 83 70 63 51 46 41 36 29 27 20 18 15 14 20 28 36 41 45 50 56 59 57 54 54 54 51 50 51 53 53 51
86 86 86 83 86 84 86 89 88 88 97 96 91 87 86 81 69 62 56 47 44 39 35 28 24 19 19 18 18 20 31 39 44 48 51 55 61 59 58 55 53 52 50 51 52 51 51
90 90 88 87 83 87 90 92 91 95 89 88 86 85 75 65 61 58 49 45 42 37 33 29 24 20 19 21 22 24 31 39 46 49 52 55 59 62 61 58 57 56 54 53 52 52 51
95 94 93 94 95 94 93 91 95 90 87 81 86 77 66 62 59 55 46 44 41 36 30 31 25 21 20 26 27 28 31 40 49 52 54 57 61 63 64 63 60 58 56 57 53 53 54
98 95 99 100 96 97 94 90 88 85 88 87 74 69 62 59 58 49 47 45 40 35 29 27 28 23 23 28 30 31 33 38 45 54 58 60 63 65 67 67 63 62 60 59 58 58 58
91 92 94 91 89 89 83 83 83 82 72 67 65 61 58 61 52 48 48 44 39 34 30 26 27 25 24 29 33 33 36 39 41 49 52 57 59 60 62 66 68 67 66 64 64 63 62

GFSGBSN_250_spd_111.txt.gz
Wind_Speed
58 54 55 54 53 56 56 56 53 60 62 67 66 74 74 75 73 74 78 78 75 73 73 75 77 79 78 78 85 86 83 88 90 96 99 98 101 105 105 104 103 99 94 94 85 87 84
65 61 63 57 60 64 64 64 61 62 64 67 70 73 76 78 79 78 73 67 68 74 78 81 78 74 70 78 87 93 97 97 97 97 99 106 111 112 110 105 106 101 93 98 94 91 88
69 69 67 68 69 71 71 69 68 65 65 69 70 75 76 76 72 74 74 75 75 75 74 75 83 86 85 96 96 100 102 93 96 102 106 107 104 108 109 106 103 101 97 93 94 91 89
81 78 75 72 73 71 73 74 71 71 69 70 70 72 71 71 72 73 76 79 81 82 84 88 91 91 90 94 97 95 96 100 101 96 96 99 108 111 111 109 102 102 101 93 80 81 89
81 83 81 75 73 77 76 73 72 70 70 69 69 68 70 74 75 76 80 81 82 85 91 91 92 91 89 93 95 98 104 99 100 101 100 104 108 107 107 104 102 94 92 89 82 88 92
88 86 78 77 74 77 75 71 68 71 68 66 69 71 73 77 81 83 85 84 90 91 90 93 99 94 92 96 102 107 104 100 104 106 104 104 105 97 91 96 98 95 96 95 89 88 96
88 88 84 81 74 73 75 70 69 73 70 70 72 74 73 75 78 80 83 89 93 88 88 98 103 103 101 108 111 108 110 106 104 100 96 101 94 82 92 98 96 97 96 92 89 87 95
86 86 84 84 82 80 76 77 74 79 81 76 76 78 81 86 82 82 87 85 84 86 90 103 106 107 109 111 106 114 116 115 106 98 95 88 71 77 84 85 84 88 92 88 87 87 91
82 82 83 86 83 79 77 79 80 78 79 79 83 77 75 79 82 84 82 86 92 95 95 101 106 109 115 115 101 106 107 99 92 85 78 68 63 69 68 69 69 71 76 75 77 86 92
85 84 82 85 81 76 76 79 80 78 72 79 77 77 74 81 84 87 88 89 96 97 104 108 112 112 108 102 103 101 95 75 77 66 66 58 64 60 58 56 57 59 63 66 71 81 89
83 84 83 79 79 76 76 76 77 81 76 79 79 84 83 86 86 88 91 94 96 101 109 115 116 106 100 103 93 97 81 69 66 58 54 58 52 51 46 45 48 49 55 60 66 71 76
85 75 64 75 86 78 72 69 70 76 82 78 77 81 86 90 91 94 92 95 101 107 112 116 116 106 104 100 86 79 73 60 53 50 47 45 40 37 39 38 38 50 53 50 53 61 64
63 70 66 83 77 74 71 68 66 70 78 81 81 79 82 84 90 92 96 100 105 108 116 117 111 105 104 87 77 65 57 51 43 41 36 34 34 33 32 33 35 42 37 40 42 42 46
76 72 76 84 80 68 72 72 68 69 71 76 82 81 82 84 86 89 100 101 103 114 120 117 100 106 90 72 64 56 45 42 36 32 28 28 28 26 29 34 36 30 28 33 35 37 47
75 76 83 80 80 73 72 76 77 80 81 78 79 82 85 86 90 93 99 102 108 118 114 113 109 94 78 63 55 46 38 35 32 24 22 24 26 26 27 28 27 30 29 38 35 37 43
85 85 87 88 85 81 75 77 79 81 83 83 81 82 83 81 86 93 98 107 112 115 115 99 85 76 65 55 47 35 31 27 23 20 18 20 21 22 22 22 25 29 24 23 24 27 30
86 86 86 87 85 81 75 75 81 84 85 80 76 79 78 84 93 98 101 109 114 114 100 85 75 65 55 50 37 28 23 20 15 16 18 23 23 21 23 28 29 27 26 26 30 29 27
82 82 79 75 76 71 74 77 81 85 84 82 79 78 81 87 95 104 109 110 106 94 89 77 66 57 51 42 33 24 18 14 13 11 19 19 19 20 23 25 29 31 31 33 36 36 26
77 79 79 79 73 72 70 72 76 82 76 78 75 79 87 90 97 100 99 94 90 91 82 69 61 51 47 34 27 19 15 13 12 14 14 12 17 25 26 29 29 27 33 42 40 41 32
77 75 81 71 70 73 71 71 74 71 70 75 75 79 85 91 95 92 88 88 85 84 71 62 54 49 43 29 21 18 12 10 15 20 21 21 25 29 35 32 32 34 36 41 45 45 40
77 79 73 68 70 69 72 68 74 70 73 72 71 77 83 85 84 85 84 87 90 85 64 55 49 46 38 26 21 15 9 15 22 27 27 29 34 38 37 40 39 38 42 46 48 48 50
72 74 69 72 71 69 67 68 69 68 71 74 76 81 80 81 84 82 84 87 84 69 53 51 48 40 31 23 18 13 11 20 26 32 32 38 42 44 42 43 45 49 51 46 49 56 53
67 63 67 67 64 67 65 64 67 69 74 76 77 79 79 83 84 86 88 85 76 61 51 48 45 37 27 22 13 14 16 25 29 34 38 44 44 44 43 45 47 44 42 43 47 47 46
62 65 71 67 65 63 66 68 69 71 75 76 77 80 80 78 85 85 87 88 67 53 48 45 40 34 25 21 15 20 21 29 34 35 41 43 44 47 50 51 50 44 44 47 49 50 50
67 68 71 71 70 71 72 73 72 72 74 74 76 78 79 82 83 87 86 70 59 49 47 44 38 32 25 19 19 22 24 31 36 39 44 48 51 51 53 53 50 47 48 48 51 53 54
72 72 75 75 74 73 72 74 74 74 76 75 78 79 78 82 83 84 80 71 55 47 42 40 36 30 24 22 20 24 28 35 39 44 47 48 53 55 54 54 53 49 49 49 49 51 53
78 75 74 74 74 76 74 76 77 77 80 79 80 80 81 85 85 83 73 60 50 45 38 36 35 30 25 23 21 24 30 35 43 47 50 53 57 56 55 52 51 51 51 49 50 51 52
80 79 74 75 74 76 76 77 77 78 78 82 82 85 85 91 78 69 58 52 48 40 37 34 34 31 26 23 25 25 32 37 43 47 52 55 59 61 61 58 56 53 54 53 54 54 53
79 81 82 81 77 82 80 83 79 83 82 78 87 84 80 76 62 58 54 50 45 40 36 33 32 31 27 24 26 27 29 35 42 50 53 58 60 63 65 64 60 58 57 56 57 57 55

GFSGBSN_250_spd_114.txt.gz
Wind_Speed
60 56 51 49 48 51 51 53 53 56 54 58 59 56 55 61 63 63 64 68 65 69 74 76 75 72 72 78 79 74 76 76 72 71 74 77 80 87 92 92 97 99 92 100 93 94 92
64 65 58 60 55 56 55 58 56 57 61 63 63 65 66 64 65 64 66 67 71 71 74 78 81 81 79 77 74 74 72 72 72 75 81 87 93 101 97 100 99 99 101 100 102 99 94
70 66 67 65 64 62 65 67 64 64 64 68 70 70 67 66 66 67 67 71 70 69 68 68 69 68 73 75 73 71 76 79 83 88 89 95 98 96 98 95 98 101 108 108 102 99 100
74 77 69 74 72 71 71 69 70 69 69 72 72 72 73 71 69 70 70 68 65 67 69 71 69 67 72 75 78 82 85 87 95 98 94 96 92 92 90 95 101 108 115 111 97 102 103
84 82 83 79 79 80 81 79 79 74 75 72 75 75 75 74 73 74 73 70 68 70 75 74 73 74 79 84 88 92 91 93 90 92 98 102 100 102 104 106 106 105 110 110 102 106 106
91 87 87 90 86 86 85 83 83 77 75 74 77 76 76 74 73 74 79 78 77 77 82 76 77 78 84 87 93 94 90 92 93 97 104 107 108 107 109 111 108 103 113 108 102 96 104
95 92 96 94 95 92 90 87 85 77 77 75 74 73 72 72 74 77 79 80 80 81 84 81 85 87 91 94 90 93 96 100 102 104 100 107 114 111 110 114 104 97 101 98 92 90 99
101 96 97 96 95 93 93 89 82 82 80 77 77 77 73 75 75 78 80 83 81 81 83 85 89 86 87 88 93 98 101 107 104 104 109 105 101 110 105 99 95 87 86 82 83 81 95
106 99 96 93 93 89 90 89 85 83 83 81 77 77 73 74 80 80 78 82 84 87 89 88 88 84 91 94 101 104 106 109 110 108 111 100 96 85 86 86 83 78 69 68 69 76 87
106 97 98 96 95 91 89 88 88 83 83 80 75 76 73 74 78 81 82 80 81 83 87 89 92 98 102 102 107 112 110 100 104 102 93 79 77 66 64 64 68 63 63 62 63 68 70
101 96 94 98 96 88 88 88 89 82 80 77 73 73 73 76 80 84 82 79 79 82 87 89 93 99 105 106 105 112 107 101 95 85 67 70 58 53 50 53 50 48 52 56 58 58 58
88 89 93 95 96 94 95 93 87 79 77 78 71 67 72 74 75 77 84 83 84 84 87 90 95 99 104 110 108 112 112 87 83 70 61 56 46 45 42 40 40 42 44 42 48 50 47
81 91 86 91 95 97 96 88 83 76 76 75 67 71 71 72 70 70 74 82 85 85 89 95 99 102 106 108 111 119 100 83 71 62 52 42 38 35 33 34 34 34 32 36 37 36 37
75 79 83 85 87 90 79 73 74 76 69 74 70 72 68 70 69 67 70 75 83 86 90 94 97 106 110 109 118 101 83 70 62 51 41 37 31 28 24 21 21 26 31 32 32 30 36
57 61 56 58 61 69 73 76 73 81 75 75 68 66 67 67 71 74 76 80 81 86 90 95 103 108 113 110 108 88 73 61 50 40 36 29 24 19 17 18 22 28 35 33 39 40 39
67 63 63 69 68 77 78 82 71 75 75 73 71 64 64 67 72 79 78 81 81 86 93 95 101 106 110 109 95 75 62 48 41 37 29 20 18 15 15 19 22 21 25 31 32 29 32
58 61 80 72 80 77 77 76 80 81 75 72 69 66 65 70 76 77 82 84 82 90 93 94 99 108 106 87 75 63 50 40 35 27 21 14 15 14 15 18 22 27 31 28 28 28 30
57 66 72 78 80 76 75 80 78 78 74 74 66 68 70 76 79 81 83 87 87 87 88 93 96 102 80 71 63 53 41 36 29 25 17 14 15 17 20 22 27 28 28 32 33 33 29
59 64 71 72 70 74 77 74 73 72 70 69 72 70 73 75 77 79 79 79 80 84 88 92 90 76 73 60 54 43 33 31 25 17 10 6 13 20 25 28 30 34 33 36 41 45 37
63 68 72 70 74 73 75 73 69 61 65 64 69 72 75 79 74 72 71 71 75 79 79 82 70 75 66 54 45 38 27 26 22 13 12 7 17 23 23 26 32 37 41 47 49 44 46
67 65 70 71 68 72 74 68 63 65 66 66 66 69 70 69 69 68 69 70 73 78 76 74 68 70 57 48 39 37 24 20 18 17 18 17 24 29 32 36 41 45 50 54 46 50 46
72 64 68 71 72 65 62 65 60 61 66 67 69 69 69 66 66 70 67 70 73 73 75 72 76 59 50 42 34 33 21 17 20 23 23 27 33 34 40 47 50 49 54 50 47 46 51
67 65 55 64 62 60 61 63 63 62 64 68 64 65 67 62 62 64 67 71 70 73 76 72 67 51 45 39 31 25 21 19 23 28 28 31 35 39 44 50 53 56 51 58 53 50 50
67 64 63 63 61 58 60 59 60 62 70 64 62 66 60 60 62 63 66 67 70 75 77 78 61 47 40 38 30 22 21 21 25 29 31 38 42 46 48 52 54 58 60 56 54 53 50
69 66 64 62 62 64 65 62 60 63 61 61 61 56 58 63 63 65 67 69 73 71 77 68 49 43 37 34 28 23 21 23 27 33 38 40 45 45 50 54 55 55 52 54 49 45 45
72 71 69 68 69 65 61 60 62 60 56 54 55 58 62 65 63 66 67 71 72 74 76 56 43 39 36 30 26 22 22 23 30 37 41 41 47 48 47 50 54 51 51 52 52 50 49
68 69 65 62 56 61 59 59 59 57 58 59 60 63 64 66 65 68 70 73 75 75 61 48 39 39 34 28 24 21 23 23 32 37 42 45 49 51 51 50 50 52 49 50 52 53 51
68 62 62 64 60 57 58 59 61 60 63 63 62 64 65 67 68 70 73 74 79 71 53 43 38 39 33 27 23 21 22 23 32 39 47 49 50 52 54 53 51 49 49 50 51 53 54
68 64 63 62 62 61 62 62 61 62 65 65 65 64 66 68 70 71 74 78 76 70 47 39 38 36 33 27 22 23 20 24 33 41 47 51 54 57 56 56 55 53 54 53 53 54 54

GFSGBSN_250_spd_117.txt.gz
Wind_Speed
68 64 66 65 63 60 58 59 50 50 48 54 54 49 49 54 54 56 53 53 52 58 59 62 67 68 72 72 68 70 71 76 77 78 80 73 72 75 73 72 76 73 74 76 75 79 84
70 58 59 63 64 62 62 64 62 56 57 53 56 53 53 54 57 59 60 60 63 63 64 66 70 73 74 72 73 73 74 78 77 79 76 75 72 73 75 79 82 84 84 83 86 85 92
71 70 61 63 66 61 65 66 71 67 66 64 62 63 58 59 60 62 62 63 68 71 68 70 70 75 75 76 76 75 74 74 73 71 72 75 79 82 85 86 89 93 95 99 94 97 89
77 76 76 73 67 64 66 73 71 73 73 71 71 69 68 64 66 68 66 69 72 75 76 77 72 78 80 77 75 72 73 73 75 78 80 83 86 89 95 102 103 104 106 104 90 97 101
86 85 85 81 78 77 78 77 80 79 79 79 76 75 75 72 72 72 69 69 74 76 79 76 76 78 78 77 74 77 79 80 83 87 89 92 95 98 103 105 99 97 99 98 88 98 101
97 94 95 90 89 88 84 83 83 84 86 85 82 80 81 79 81 78 73 72 76 77 75 74 75 78 76 77 81 85 85 88 91 93 96 98 99 100 97 100 101 101 106 103 101 94 108
103 101 99 100 96 97 94 94 90 91 91 89 88 85 83 85 80 81 75 78 78 79 78 76 76 77 80 81 82 80 84 86 90 95 96 98 102 103 109 112 109 102 105 109 106 107 108
112 109 105 104 100 99 99 96 93 94 91 96 95 91 86 80 79 79 78 80 81 80 81 78 80 82 83 82 84 88 86 90 97 97 100 97 99 108 104 106 112 107 109 106 102 103 105
118 115 112 105 106 100 101 100 97 95 94 92 91 90 87 84 80 81 79 80 80 79 80 82 83 87 88 87 89 89 88 90 96 103 104 103 109 106 106 100 109 104 102 104 95 87 87
119 113 115 108 106 105 100 99 92 94 96 93 96 92 85 82 82 79 80 81 80 79 78 78 83 91 91 90 90 92 94 98 100 106 112 112 102 99 94 94 93 83 88 81 81 75 72
116 117 114 111 102 99 100 97 90 82 98 92 95 91 87 80 81 78 80 79 77 77 76 80 81 83 84 86 92 94 99 104 107 112 101 102 96 82 75 72 72 70 63 61 61 60 60
91 93 95 95 93 96 98 98 93 96 94 96 94 91 87 85 79 76 77 71 74 74 75 76 77 77 78 81 84 93 99 102 102 103 90 86 76 64 62 58 56 54 53 50 49 43 46
69 72 77 81 86 93 97 99 96 97 96 96 94 94 89 86 79 81 79 73 70 74 75 74 75 75 77 80 83 91 97 100 107 95 85 73 64 58 52 49 47 42 40 37 36 37 39
54 56 61 64 72 80 88 98 92 94 95 95 90 90 82 80 79 77 78 74 70 73 74 71 73 77 81 84 90 98 103 105 94 84 74 64 59 48 41 38 35 34 35 31 31 33 32
42 46 54 60 66 71 76 81 85 94 93 90 87 87 79 80 75 70 66 64 66 68 67 68 73 79 83 87 93 97 101 101 83 78 66 58 48 39 32 28 25 24 24 25 27 29 33
31 40 43 51 53 65 66 69 72 77 79 83 82 78 74 74 72 66 65 68 67 66 64 67 72 78 83 89 90 91 94 96 83 70 58 47 38 34 26 19 17 18 19 21 25 29 31
45 54 46 49 61 64 63 69 73 75 77 75 74 67 63 66 68 66 67 65 66 63 63 68 73 76 78 81 83 82 88 86 73 58 47 36 28 26 22 16 15 17 21 22 20 25 30
54 54 57 59 56 58 60 60 63 62 59 63 61 58 61 66 60 62 57 64 68 68 68 70 73 77 81 79 79 81 86 75 59 46 35 25 17 17 16 13 15 17 19 20 23 28 30
71 60 62 57 57 62 55 58 60 57 52 51 56 59 61 65 62 61 63 64 68 65 69 71 72 76 75 75 78 79 69 56 46 36 24 18 11 12 16 16 20 21 23 29 30 31 34
67 70 68 59 60 58 62 66 65 62 58 59 64 64 64 62 63 61 63 63 66 68 68 71 71 69 67 74 77 72 59 45 39 28 20 19 14 12 16 20 24 28 33 34 35 37 41
73 74 73 52 57 54 56 67 68 69 62 57 53 52 57 59 59 61 61 62 58 62 65 68 64 61 66 72 72 60 50 38 35 25 20 19 14 15 21 26 27 31 34 32 33 42 41
77 71 73 66 62 48 55 63 65 66 59 56 54 52 56 54 57 56 57 57 57 60 62 60 57 62 66 69 72 53 43 33 29 24 20 20 19 23 29 30 35 37 37 35 37 44 48
76 71 69 63 66 51 53 49 48 46 45 51 57 56 54 58 58 56 54 54 57 59 56 56 59 62 66 71 64 47 39 30 26 23 23 25 24 31 35 39 44 45 42 43 42 43 44
71 75 76 70 66 53 49 48 48 49 47 48 48 56 56 57 54 54 54 55 55 55 55 56 58 63 66 75 58 43 36 29 25 22 25 25 30 37 39 48 53 52 51 50 47 44 47
69 68 67 67 62 52 51 49 46 41 41 47 47 49 54 56 53 52 53 55 54 53 57 59 62 67 67 69 50 42 31 31 23 24 27 29 34 39 44 53 55 57 57 54 52 49 48
69 69 67 66 65 54 54 52 53 51 51 52 50 52 49 50 51 49 50 50 53 56 58 60 65 66 74 55 44 38 31 29 24 25 29 31 37 42 46 55 58 60 59 58 54 54 51
75 70 68 62 62 59 51 49 47 50 53 51 49 48 49 49 47 48 48 53 54 58 59 63 66 69 63 47 42 36 30 27 24 26 32 35 38 40 51 56 57 57 57 62 59 55 52
76 75 67 61 56 58 52 49 50 50 49 48 47 47 48 49 46 48 54 55 58 60 61 64 68 70 51 44 39 35 30 26 25 28 33 39 41 45 47 55 59 57 60 56 58 59 56
75 73 67 61 59 57 53 51 50 49 49 50 47 46 49 49 50 54 56 58 59 60 61 66 68 52 45 43 38 34 31 26 26 28 33 39 41 48 47 54 57 61 54 59 59 59 59

GFSGBSN_250_spd_120.txt.gz
Wind_Speed
90 83 82 76 75 71 69 64 64 61 62 61 56 55 50 55 55 54 51 51 48 49 52 54 53 52 52 55 61 64 68 71 73 76 77 79 80 80 78 76 75 74 69 68 69 72 75
93 87 77 73 71 72 69 64 61 58 58 59 60 60 61 56 54 52 56 58 54 54 56 60 60 59 60 60 63 68 71 73 76 78 78 82 84 85 83 82 80 76 71 69 69 70 72
92 90 85 68 64 71 71 66 60 57 56 57 56 60 65 65 62 57 59 60 57 59 59 60 64 65 65 67 69 72 71 75 76 77 79 82 80 82 82 81 77 74 71 70 74 78 83
95 88 86 79 72 71 74 74 68 65 67 60 59 58 62 68 69 70 69 67 71 71 66 66 67 71 70 71 73 74 76 76 76 77 78 77 78 77 80 82 82 84 84 83 83 90 91
96 90 86 84 81 78 77 78 78 73 70 73 64 65 65 67 72 74 74 73 74 74 73 74 75 75 74 78 77 76 76 74 74 74 76 78 79 83 89 93 93 95 94 97 88 95 100
101 99 93 89 88 85 84 85 82 80 79 78 77 72 72 74 73 77 80 78 78 81 80 82 79 82 82 76 80 77 76 78 78 78 79 81 84 90 94 97 94 99 100 96 95 95 100
105 106 106 105 92 92 91 89 92 90 86 87 86 86 86 80 81 82 83 83 85 84 85 84 83 82 75 80 83 79 79 78 78 81 83 86 88 92 93 93 93 98 101 95 94 96 97
114 115 110 109 113 102 98 96 94 95 97 90 88 90 90 87 85 86 85 84 86 90 88 87 86 82 78 81 81 79 79 81 84 85 88 90 97 98 98 103 104 102 97 98 94 94 102
123 123 125 125 118 114 104 102 100 98 98 98 94 95 93 89 88 88 89 89 89 87 84 83 84 83 80 80 82 81 81 82 84 87 92 95 99 97 97 104 107 95 98 100 104 98 100
124 127 130 129 125 118 111 108 104 103 102 100 99 103 97 98 93 89 90 91 89 88 86 85 84 83 82 82 80 80 83 83 86 90 89 90 91 95 98 99 105 90 102 96 96 93 87
108 104 107 107 114 114 111 109 105 109 105 104 101 101 97 100 90 88 90 88 91 87 86 83 83 83 82 81 81 82 83 86 87 88 87 88 91 96 94 85 90 89 91 84 83 80 74
85 83 81 86 91 96 103 107 109 111 110 106 100 99 101 97 90 91 89 88 89 85 84 84 84 82 79 80 81 84 85 84 85 88 89 91 94 87 81 81 79 74 70 65 60 59 55
67 65 62 63 71 79 92 102 107 108 108 104 102 101 98 91 91 88 88 80 82 81 82 82 81 79 80 80 82 81 82 82 82 82 88 87 87 78 73 66 59 55 52 49 46 44 44
53 51 48 50 53 58 71 81 92 96 101 100 101 98 94 91 94 88 87 88 83 80 81 82 81 78 75 76 73 77 79 80 79 80 83 86 79 69 61 52 49 45 42 40 34 33 34
37 35 41 35 35 39 48 59 67 73 78 84 89 88 89 90 89 86 88 92 87 82 75 74 72 73 70 71 72 74 73 73 76 83 84 78 75 61 53 51 42 34 33 31 26 27 28
27 20 25 25 31 39 42 48 51 53 64 73 79 81 85 86 88 88 89 86 84 81 69 71 70 69 68 71 72 74 76 73 81 81 80 75 63 54 49 44 33 27 23 21 22 22 24
46 34 28 24 26 35 37 42 44 53 55 58 65 70 71 81 88 82 83 80 76 70 64 62 61 65 65 65 70 76 74 74 78 77 75 63 51 48 42 33 23 18 13 15 18 16 19
47 44 28 36 32 36 34 38 48 52 54 55 52 58 64 63 69 67 70 71 59 56 52 54 59 55 59 65 70 70 72 75 73 74 66 49 49 41 33 22 17 15 13 15 17 16 18
56 50 45 37 46 42 46 45 48 44 42 48 50 54 57 57 55 55 52 49 48 46 50 50 53 58 62 64 61 65 68 67 69 65 50 46 42 33 26 17 16 14 17 18 17 19 21
60 56 55 50 43 49 53 50 53 54 46 49 50 51 54 55 55 52 43 41 42 49 49 51 51 58 63 61 60 65 62 61 61 52 41 42 33 25 17 14 16 19 20 19 20 23 28
69 68 66 60 59 56 57 50 47 52 48 44 42 40 40 38 38 36 40 41 45 47 49 50 53 54 58 59 62 60 61 59 57 47 37 37 27 20 11 14 21 23 23 22 25 27 28
72 68 75 78 67 65 64 59 53 48 49 43 41 39 35 32 34 37 45 43 40 43 44 45 49 53 52 57 56 60 58 58 52 42 37 31 23 15 15 20 27 29 24 25 30 29 31
70 76 71 72 67 64 65 58 53 49 45 48 46 45 42 39 40 35 35 38 40 41 43 49 51 50 51 56 58 59 58 56 43 37 33 26 21 18 24 27 31 33 26 28 33 32 34
72 75 72 70 69 66 62 54 44 45 40 32 35 41 46 44 42 39 39 39 38 42 43 49 50 50 53 53 58 56 65 53 38 33 29 22 21 25 35 36 41 39 32 33 38 36 42
74 78 74 77 69 69 63 48 50 38 33 37 39 35 34 38 40 41 41 43 43 43 47 46 46 48 49 54 53 59 62 46 39 31 29 21 23 28 39 43 43 46 41 42 42 42 46
73 74 73 74 71 70 63 55 57 46 40 33 32 32 33 36 36 36 40 40 42 41 44 44 46 49 51 55 57 61 52 42 37 32 28 24 24 32 43 51 48 49 45 49 46 43 45
74 75 69 68 67 70 59 64 56 46 40 41 37 36 38 37 34 39 35 37 38 40 41 44 48 50 54 59 61 58 45 39 35 32 29 28 25 33 45 54 54 51 50 52 52 47 46
75 81 76 72 68 63 62 58 54 49 44 38 38 42 39 34 36 37 39 39 38 39 42 47 50 55 58 60 61 52 42 38 34 33 30 30 30 31 43 53 63 57 56 55 54 53 49
71 75 72 67 65 61 61 67 57 50 46 44 44 43 41 40 38 38 39 39 40 42 45 49 54 57 59 59 57 46 40 37 34 32 31 29 32 34 40 49 59 66 62 60 59 56 57